Wetterdaten: Montag, 11.06.2018
Datum Zeit Temp. Aussen Temp. o. S. +5cm Feuchte Auss Luftdruck Regen Sonnenschein Regendauer Solar Windben Empfang
11.06.2018 00:00 20,2 C 18,9 C 18,9 C 81 % 1010,5 hPa 0,0 l/m 0 min 0 min 0 W/m 4,5 km/h (1 Bft) 97,87 %
11.06.2018 00:02 20,2 C 18,9 C 18,9 C 81 % 1010,5 hPa 0,0 l/m 0 min 0 min 0 W/m 9,0 km/h (2 Bft) 95,56 %
11.06.2018 00:04 20,1 C 18,9 C 18,9 C 81 % 1010,6 hPa 0,0 l/m 0 min 0 min 0 W/m 2,3 km/h (1 Bft) 97,87 %
11.06.2018 00:08 20,1 C 18,9 C 18,9 C 82 % 1010,7 hPa 0,0 l/m 0 min 0 min 0 W/m 9,0 km/h (2 Bft) 97,56 %
11.06.2018 00:10 20,1 C 18,9 C 18,9 C 82 % 1010,7 hPa 0,0 l/m 0 min 0 min 0 W/m 4,5 km/h (1 Bft) 97,87 %
11.06.2018 00:12 20,0 C 18,9 C 18,9 C 82 % 1010,7 hPa 0,0 l/m 0 min 0 min 0 W/m 4,5 km/h (1 Bft) 97,87 %
11.06.2018 00:14 20,0 C 18,9 C 18,3 C 82 % 1010,8 hPa 0,0 l/m 0 min 0 min 0 W/m 4,5 km/h (1 Bft) 97,87 %
11.06.2018 00:16 19,9 C 18,9 C 18,3 C 83 % 1010,8 hPa 0,0 l/m 0 min 0 min 0 W/m 13,5 km/h (3 Bft) 97,87 %
11.06.2018 00:18 19,9 C 18,9 C 18,3 C 83 % 1010,8 hPa 0,0 l/m 0 min 0 min 0 W/m 4,5 km/h (1 Bft) 97,83 %
11.06.2018 00:20 19,9 C 18,9 C 18,3 C 83 % 1011,0 hPa 0,0 l/m 0 min 0 min 0 W/m 6,8 km/h (2 Bft) 100,00 %
11.06.2018 00:22 19,8 C 18,9 C 18,3 C 83 % 1011,0 hPa 0,0 l/m 0 min 0 min 0 W/m 9,0 km/h (2 Bft) 100,00 %
11.06.2018 00:24 19,8 C 18,9 C 18,3 C 83 % 1010,9 hPa 0,0 l/m 0 min 0 min 0 W/m 11,3 km/h (2 Bft) 97,87 %
11.06.2018 00:26 19,8 C 18,9 C 18,3 C 83 % 1010,9 hPa 0,0 l/m 0 min 0 min 0 W/m 11,3 km/h (2 Bft) 100,00 %
11.06.2018 00:28 19,7 C 18,3 C 18,3 C 84 % 1010,9 hPa 0,0 l/m 0 min 0 min 0 W/m 2,3 km/h (1 Bft) 100,00 %
11.06.2018 00:30 19,7 C 18,3 C 18,3 C 84 % 1010,9 hPa 0,0 l/m 0 min 0 min 0 W/m 6,8 km/h (2 Bft) 100,00 %
11.06.2018 00:32 19,7 C 18,3 C 18,3 C 84 % 1010,9 hPa 0,0 l/m 0 min 0 min 0 W/m 9,0 km/h (2 Bft) 100,00 %
11.06.2018 00:34 19,6 C 18,3 C 18,3 C 84 % 1010,9 hPa 0,0 l/m 0 min 0 min 0 W/m 2,3 km/h (1 Bft) 97,87 %
11.06.2018 00:36 19,6 C 18,3 C 18,3 C 84 % 1010,9 hPa 0,0 l/m 0 min 0 min 0 W/m 13,5 km/h (3 Bft) 100,00 %
11.06.2018 00:38 19,6 C 18,3 C 18,3 C 84 % 1010,9 hPa 0,0 l/m 0 min 0 min 0 W/m 4,5 km/h (1 Bft) 100,00 %
11.06.2018 00:40 19,5 C 18,3 C 18,3 C 84 % 1011,0 hPa 0,0 l/m 0 min 0 min 0 W/m 9,0 km/h (2 Bft) 100,00 %
11.06.2018 00:42 19,4 C 18,3 C 17,8 C 84 % 1011,0 hPa 0,0 l/m 0 min 0 min 0 W/m 6,8 km/h (2 Bft) 100,00 %
11.06.2018 00:44 19,4 C 18,3 C 17,8 C 84 % 1011,0 hPa 0,0 l/m 0 min 0 min 0 W/m 2,3 km/h (1 Bft) 100,00 %
11.06.2018 00:46 19,4 C 18,3 C 17,8 C 84 % 1011,1 hPa 0,0 l/m 0 min 0 min 0 W/m 9,0 km/h (2 Bft) 97,87 %
11.06.2018 00:48 19,4 C 18,3 C 17,8 C 84 % 1011,1 hPa 0,0 l/m 0 min 0 min 0 W/m 9,0 km/h (2 Bft) 100,00 %
11.06.2018 00:50 19,3 C 18,3 C 17,8 C 85 % 1011,2 hPa 0,0 l/m 0 min 0 min 0 W/m 4,5 km/h (1 Bft) 100,00 %
11.06.2018 00:52 19,3 C 17,8 C 17,8 C 85 % 1011,1 hPa 0,0 l/m 0 min 0 min 0 W/m 6,8 km/h (2 Bft) 100,00 %
11.06.2018 00:54 19,2 C 17,8 C 17,8 C 85 % 1011,2 hPa 0,0 l/m 0 min 0 min 0 W/m 2,3 km/h (1 Bft) 100,00 %
11.06.2018 00:56 19,2 C 17,8 C 17,8 C 85 % 1011,2 hPa 0,0 l/m 0 min 0 min 0 W/m 2,3 km/h (1 Bft) 100,00 %
11.06.2018 00:58 19,2 C 17,8 C 17,8 C 85 % 1011,1 hPa 0,0 l/m 0 min 0 min 0 W/m 2,3 km/h (1 Bft) 100,00 %
11.06.2018 01:00 19,2 C 17,8 C 17,8 C 85 % 1011,2 hPa 0,0 l/m 0 min 0 min 0 W/m 6,8 km/h (2 Bft) 100,00 %
11.06.2018 01:02 19,1 C 17,8 C 17,8 C 85 % 1011,2 hPa 0,0 l/m 0 min 0 min 0 W/m 4,5 km/h (1 Bft) 100,00 %
11.06.2018 01:04 19,1 C 17,8 C 17,8 C 85 % 1011,2 hPa 0,0 l/m 0 min 0 min 0 W/m 2,3 km/h (1 Bft) 95,65 %
11.06.2018 01:08 19,0 C 17,8 C 17,8 C 85 % 1011,1 hPa 0,0 l/m 0 min 0 min 0 W/m 6,8 km/h (2 Bft) 97,87 %
11.06.2018 01:10 18,9 C 17,8 C 17,2 C 86 % 1011,1 hPa 0,0 l/m 0 min 0 min 0 W/m 4,5 km/h (1 Bft) 100,00 %
11.06.2018 01:12 18,9 C 17,8 C 17,2 C 86 % 1011,1 hPa 0,0 l/m 0 min 0 min 0 W/m 6,8 km/h (2 Bft) 97,87 %
11.06.2018 01:14 18,9 C 17,8 C 17,2 C 86 % 1011,1 hPa 0,0 l/m 0 min 0 min 0 W/m 6,8 km/h (2 Bft) 97,87 %
11.06.2018 01:16 18,8 C 17,2 C 17,2 C 86 % 1011,1 hPa 0,0 l/m 0 min 0 min 0 W/m 4,5 km/h (1 Bft) 95,65 %
11.06.2018 01:18 18,8 C 17,2 C 17,2 C 86 % 1011,2 hPa 0,0 l/m 0 min 0 min 0 W/m 4,5 km/h (1 Bft) 100,00 %
11.06.2018 01:20 18,7 C 17,2 C 17,2 C 86 % 1011,2 hPa 0,0 l/m 0 min 0 min 0 W/m 4,5 km/h (1 Bft) 97,87 %
11.06.2018 01:22 18,7 C 17,2 C 17,2 C 86 % 1011,1 hPa 0,0 l/m 0 min 0 min 0 W/m 0,0 km/h (0 Bft) 95,74 %
11.06.2018 01:24 18,7 C 17,2 C 17,2 C 86 % 1011,2 hPa 0,0 l/m 0 min 0 min 0 W/m 9,0 km/h (2 Bft) 97,87 %
11.06.2018 01:26 18,6 C 17,2 C 17,2 C 86 % 1011,1 hPa 0,0 l/m 0 min 0 min 0 W/m 4,5 km/h (1 Bft) 97,87 %
11.06.2018 01:28 18,6 C 17,2 C 17,2 C 86 % 1011,1 hPa 0,0 l/m 0 min 0 min 0 W/m 4,5 km/h (1 Bft) 95,65 %
11.06.2018 01:30 18,5 C 17,2 C 17,2 C 86 % 1011,2 hPa 0,0 l/m 0 min 0 min 0 W/m 9,0 km/h (2 Bft) 95,74 %
11.06.2018 01:32 18,4 C 17,2 C 17,2 C 87 % 1011,1 hPa 0,0 l/m 0 min 0 min 0 W/m 4,5 km/h (1 Bft) 97,87 %
11.06.2018 01:34 18,4 C 17,2 C 17,2 C 86 % 1011,2 hPa 0,0 l/m 0 min 0 min 0 W/m 2,3 km/h (1 Bft) 93,62 %
11.06.2018 01:36 18,3 C 17,2 C 17,2 C 86 % 1011,2 hPa 0,0 l/m 0 min 0 min 0 W/m 9,0 km/h (2 Bft) 95,74 %
11.06.2018 01:38 18,3 C 17,2 C 17,2 C 87 % 1011,2 hPa 0,0 l/m 0 min 0 min 0 W/m 4,5 km/h (1 Bft) 91,49 %
11.06.2018 01:40 18,3 C 17,2 C 17,2 C 87 % 1011,2 hPa 0,0 l/m 0 min 0 min 0 W/m 2,3 km/h (1 Bft) 95,65 %
11.06.2018 01:42 18,2 C 17,2 C 17,2 C 87 % 1011,1 hPa 0,0 l/m 0 min 0 min 0 W/m 4,5 km/h (1 Bft) 95,74 %
11.06.2018 01:44 18,2 C 16,7 C 16,7 C 87 % 1011,1 hPa 0,0 l/m 0 min 0 min 0 W/m 6,8 km/h (2 Bft) 97,87 %
11.06.2018 01:46 18,1 C 16,7 C 16,7 C 87 % 1011,2 hPa 0,0 l/m 0 min 0 min 0 W/m 4,5 km/h (1 Bft) 95,74 %
11.06.2018 01:48 18,1 C 16,7 C 16,7 C 87 % 1011,2 hPa 0,0 l/m 0 min 0 min 0 W/m 2,3 km/h (1 Bft) 93,62 %
11.06.2018 01:50 18,1 C 16,7 C 16,7 C 87 % 1011,2 hPa 0,0 l/m 0 min 0 min 0 W/m 6,8 km/h (2 Bft) 97,87 %
11.06.2018 01:52 18,0 C 16,7 C 16,7 C 87 % 1011,2 hPa 0,0 l/m 0 min 0 min 0 W/m 6,8 km/h (2 Bft) 95,65 %
11.06.2018 01:54 17,9 C 16,7 C 16,7 C 87 % 1011,2 hPa 0,0 l/m 0 min 0 min 0 W/m 6,8 km/h (2 Bft) 95,74 %
11.06.2018 01:56 17,9 C 16,7 C 16,7 C 86 % 1011,2 hPa 0,0 l/m 0 min 0 min 0 W/m 2,3 km/h (1 Bft) 95,74 %
11.06.2018 01:58 17,9 C 16,7 C 16,7 C 86 % 1011,2 hPa 0,0 l/m 0 min 0 min 0 W/m 2,3 km/h (1 Bft) 95,74 %
11.06.2018 02:00 17,8 C 16,7 C 16,7 C 86 % 1011,2 hPa 0,0 l/m 0 min 0 min 0 W/m 4,5 km/h (1 Bft) 95,74 %
11.06.2018 02:02 17,8 C 16,7 C 16,7 C 86 % 1011,2 hPa 0,0 l/m 0 min 0 min 0 W/m 4,5 km/h (1 Bft) 95,65 %
11.06.2018 02:04 17,8 C 16,7 C 16,7 C 87 % 1011,3 hPa 0,0 l/m 0 min 0 min 0 W/m 6,8 km/h (2 Bft) 95,74 %
11.06.2018 02:06 17,7 C 16,7 C 16,7 C 87 % 1011,3 hPa 0,0 l/m 0 min 0 min 0 W/m 6,8 km/h (2 Bft) 95,74 %
11.06.2018 02:08 17,7 C 16,7 C 16,7 C 87 % 1011,3 hPa 0,0 l/m 0 min 0 min 0 W/m 4,5 km/h (1 Bft) 97,87 %
11.06.2018 02:10 17,7 C 16,7 C 16,7 C 87 % 1011,2 hPa 0,0 l/m 0 min 0 min 0 W/m 2,3 km/h (1 Bft) 95,74 %
11.06.2018 02:12 17,6 C 16,7 C 16,7 C 87 % 1011,4 hPa 0,0 l/m 0 min 0 min 0 W/m 2,3 km/h (1 Bft) 97,87 %
11.06.2018 02:14 17,6 C 16,7 C 16,7 C 87 % 1011,4 hPa 0,0 l/m 0 min 0 min 0 W/m 2,3 km/h (1 Bft) 97,87 %
11.06.2018 02:16 17,6 C 16,7 C 16,7 C 87 % 1011,3 hPa 0,0 l/m 0 min 0 min 0 W/m 2,3 km/h (1 Bft) 97,83 %
11.06.2018 02:18 17,6 C 16,7 C 16,7 C 87 % 1011,4 hPa 0,0 l/m 0 min 0 min 0 W/m 6,8 km/h (2 Bft) 100,00 %
11.06.2018 02:20 17,5 C 16,7 C 16,7 C 87 % 1011,3 hPa 0,0 l/m 0 min 0 min 0 W/m 4,5 km/h (1 Bft) 97,87 %
11.06.2018 02:22 17,4 C 16,1 C 16,7 C 87 % 1011,3 hPa 0,0 l/m 0 min 0 min 0 W/m 2,3 km/h (1 Bft) 95,74 %
11.06.2018 02:24 17,4 C 16,1 C 16,7 C 87 % 1011,2 hPa 0,0 l/m 0 min 0 min 0 W/m 4,5 km/h (1 Bft) 97,87 %
11.06.2018 02:26 17,4 C 16,1 C 16,7 C 88 % 1011,3 hPa 0,0 l/m 0 min 0 min 0 W/m 4,5 km/h (1 Bft) 93,48 %
11.06.2018 02:28 17,4 C 16,1 C 16,1 C 88 % 1011,3 hPa 0,0 l/m 0 min 0 min 0 W/m 4,5 km/h (1 Bft) 95,74 %
11.06.2018 02:30 17,4 C 16,1 C 16,1 C 88 % 1011,3 hPa 0,0 l/m 0 min 0 min 0 W/m 2,3 km/h (1 Bft) 93,62 %
11.06.2018 02:32 17,3 C 16,1 C 16,1 C 88 % 1011,3 hPa 0,0 l/m 0 min 0 min 0 W/m 4,5 km/h (1 Bft) 93,62 %
11.06.2018 02:34 17,3 C 16,1 C 16,1 C 88 % 1011,4 hPa 0,0 l/m 0 min 0 min 0 W/m 2,3 km/h (1 Bft) 95,74 %
11.06.2018 02:36 17,3 C 16,7 C 16,1 C 88 % 1011,4 hPa 0,0 l/m 0 min 0 min 0 W/m 2,3 km/h (1 Bft) 94,34 %
11.06.2018 02:38 17,3 C 16,7 C 16,7 C 88 % 1011,4 hPa 0,0 l/m 0 min 0 min 0 W/m 0,0 km/h (0 Bft) 93,62 %
11.06.2018 02:40 17,3 C 16,7 C 16,7 C 88 % 1011,4 hPa 0,0 l/m 0 min 0 min 0 W/m 2,3 km/h (1 Bft) 91,30 %
11.06.2018 02:42 17,2 C 16,7 C 16,1 C 88 % 1011,3 hPa 0,0 l/m 0 min 0 min 0 W/m 4,5 km/h (1 Bft) 97,87 %
11.06.2018 02:44 17,2 C 16,7 C 16,7 C 88 % 1011,3 hPa 0,0 l/m 0 min 0 min 0 W/m 6,8 km/h (2 Bft) 97,87 %
11.06.2018 02:46 17,2 C 16,7 C 16,1 C 88 % 1011,2 hPa 0,0 l/m 0 min 0 min 0 W/m 4,5 km/h (1 Bft) 95,74 %
11.06.2018 02:48 17,2 C 16,7 C 16,1 C 88 % 1011,2 hPa 0,0 l/m 0 min 0 min 0 W/m 2,3 km/h (1 Bft) 97,87 %
11.06.2018 02:50 17,2 C 16,7 C 16,1 C 88 % 1011,3 hPa 0,0 l/m 0 min 0 min 0 W/m 2,3 km/h (1 Bft) 97,87 %
11.06.2018 02:52 17,2 C 16,7 C 16,1 C 89 % 1011,2 hPa 0,0 l/m 0 min 0 min 0 W/m 6,8 km/h (2 Bft) 95,65 %
11.06.2018 02:54 17,2 C 16,7 C 16,1 C 89 % 1011,2 hPa 0,0 l/m 0 min 0 min 0 W/m 4,5 km/h (1 Bft) 97,87 %
11.06.2018 02:56 17,2 C 16,7 C 16,1 C 89 % 1011,2 hPa 0,0 l/m 0 min 0 min 0 W/m 4,5 km/h (1 Bft) 95,74 %
11.06.2018 02:58 17,1 C 16,7 C 16,7 C 89 % 1011,2 hPa 0,0 l/m 0 min 0 min 0 W/m 2,3 km/h (1 Bft) 97,87 %
11.06.2018 03:00 17,1 C 16,7 C 16,1 C 89 % 1011,1 hPa 0,0 l/m 0 min 0 min 0 W/m 2,3 km/h (1 Bft) 95,74 %
11.06.2018 03:02 17,1 C 16,7 C 16,1 C 89 % 1011,0 hPa 0,0 l/m 0 min 0 min 0 W/m 4,5 km/h (1 Bft) 97,83 %
11.06.2018 03:04 17,1 C 16,1 C 16,1 C 89 % 1010,9 hPa 0,0 l/m 0 min 0 min 0 W/m 9,0 km/h (2 Bft) 97,87 %
11.06.2018 03:06 17,1 C 16,1 C 16,1 C 89 % 1010,9 hPa 0,0 l/m 0 min 0 min 0 W/m 4,5 km/h (1 Bft) 95,74 %
11.06.2018 03:08 17,1 C 16,1 C 16,1 C 89 % 1010,9 hPa 0,0 l/m 0 min 0 min 0 W/m 9,0 km/h (2 Bft) 93,62 %
11.06.2018 03:10 17,1 C 16,1 C 16,1 C 89 % 1010,8 hPa 0,0 l/m 0 min 0 min 0 W/m 6,8 km/h (2 Bft) 97,87 %
11.06.2018 03:12 17,1 C 16,1 C 16,1 C 89 % 1010,9 hPa 0,0 l/m 0 min 0 min 0 W/m 0,0 km/h (0 Bft) 97,87 %
11.06.2018 03:14 17,0 C 16,1 C 16,1 C 89 % 1010,9 hPa 0,0 l/m 0 min 0 min 0 W/m 6,8 km/h (2 Bft) 97,83 %
11.06.2018 03:16 17,0 C 16,1 C 16,1 C 89 % 1010,9 hPa 0,0 l/m 0 min 0 min 0 W/m 6,8 km/h (2 Bft) 100,00 %
11.06.2018 03:18 17,0 C 16,1 C 16,1 C 89 % 1010,9 hPa 0,0 l/m 0 min 0 min 0 W/m 4,5 km/h (1 Bft) 100,00 %
11.06.2018 03:20 17,0 C 16,1 C 16,1 C 89 % 1010,8 hPa 0,0 l/m 0 min 0 min 0 W/m 4,5 km/h (1 Bft) 100,00 %
11.06.2018 03:22 17,0 C 16,1 C 16,1 C 89 % 1010,8 hPa 0,0 l/m 0 min 0 min 0 W/m 2,3 km/h (1 Bft) 100,00 %
11.06.2018 03:24 16,9 C 16,1 C 16,1 C 89 % 1010,8 hPa 0,0 l/m 0 min 0 min 0 W/m 11,3 km/h (2 Bft) 97,87 %
11.06.2018 03:26 16,9 C 16,1 C 16,1 C 89 % 1010,8 hPa 0,0 l/m 0 min 0 min 0 W/m 9,0 km/h (2 Bft) 97,83 %
11.06.2018 03:28 16,9 C 16,1 C 16,1 C 89 % 1010,7 hPa 0,0 l/m 0 min 0 min 0 W/m 4,5 km/h (1 Bft) 100,00 %
11.06.2018 03:30 16,9 C 16,1 C 16,1 C 89 % 1010,8 hPa 0,0 l/m 0 min 0 min 0 W/m 9,0 km/h (2 Bft) 100,00 %
11.06.2018 03:32 16,9 C 16,1 C 16,1 C 89 % 1010,8 hPa 0,0 l/m 0 min 0 min 0 W/m 2,3 km/h (1 Bft) 97,73 %
11.06.2018 03:34 16,9 C 16,1 C 16,1 C 89 % 1010,8 hPa 0,0 l/m 0 min 0 min 0 W/m 4,5 km/h (1 Bft) 100,00 %
11.06.2018 03:36 16,9 C 16,1 C 16,1 C 89 % 1010,7 hPa 0,0 l/m 0 min 0 min 0 W/m 2,3 km/h (1 Bft) 100,00 %
11.06.2018 03:38 16,8 C 16,1 C 16,1 C 89 % 1010,7 hPa 0,0 l/m 0 min 0 min 0 W/m 4,5 km/h (1 Bft) 97,87 %
11.06.2018 03:40 16,8 C 16,1 C 16,1 C 89 % 1010,8 hPa 0,0 l/m 0 min 0 min 0 W/m 4,5 km/h (1 Bft) 100,00 %
11.06.2018 03:42 16,8 C 16,1 C 16,1 C 89 % 1010,8 hPa 0,0 l/m 0 min 0 min 0 W/m 2,3 km/h (1 Bft) 97,87 %
11.06.2018 03:44 16,8 C 16,1 C 16,1 C 89 % 1010,9 hPa 0,0 l/m 0 min 0 min 0 W/m 0,0 km/h (0 Bft) 95,74 %
11.06.2018 03:46 16,8 C 16,1 C 16,1 C 89 % 1010,9 hPa 0,0 l/m 0 min 0 min 0 W/m 0,0 km/h (0 Bft) 100,00 %
11.06.2018 03:48 16,8 C 16,1 C 16,1 C 89 % 1010,9 hPa 0,0 l/m 0 min 0 min 0 W/m 0,0 km/h (0 Bft) 100,00 %
11.06.2018 03:50 16,8 C 16,1 C 16,1 C 89 % 1010,9 hPa 0,0 l/m 0 min 0 min 0 W/m 2,3 km/h (1 Bft) 97,87 %
11.06.2018 03:52 16,8 C 16,1 C 16,1 C 89 % 1010,9 hPa 0,0 l/m 0 min 0 min 0 W/m 4,5 km/h (1 Bft) 97,87 %
11.06.2018 03:54 16,8 C 16,1 C 16,1 C 89 % 1010,8 hPa 0,0 l/m 0 min 0 min 0 W/m 9,0 km/h (2 Bft) 100,00 %
11.06.2018 03:56 16,7 C 16,1 C 16,1 C 90 % 1010,8 hPa 0,0 l/m 0 min 0 min 0 W/m 6,8 km/h (2 Bft) 97,87 %
11.06.2018 03:58 16,7 C 16,1 C 16,1 C 90 % 1010,7 hPa 0,0 l/m 0 min 0 min 0 W/m 6,8 km/h (2 Bft) 97,87 %
11.06.2018 04:00 16,7 C 16,1 C 16,1 C 90 % 1010,7 hPa 0,0 l/m 0 min 0 min 0 W/m 4,5 km/h (1 Bft) 97,83 %
11.06.2018 04:02 16,7 C 16,1 C 16,1 C 90 % 1010,7 hPa 0,0 l/m 0 min 0 min 0 W/m 6,8 km/h (2 Bft) 96,00 %
11.06.2018 04:04 16,7 C 16,1 C 16,1 C 90 % 1010,7 hPa 0,0 l/m 0 min 0 min 0 W/m 4,5 km/h (1 Bft) 97,87 %
11.06.2018 04:06 16,7 C 15,6 C 15,6 C 90 % 1010,7 hPa 0,0 l/m 0 min 0 min 0 W/m 4,5 km/h (1 Bft) 97,87 %
11.06.2018 04:08 16,6 C 15,6 C 15,6 C 90 % 1010,7 hPa 0,0 l/m 0 min 0 min 0 W/m 6,8 km/h (2 Bft) 97,87 %
11.06.2018 04:10 16,6 C 15,6 C 15,6 C 90 % 1010,7 hPa 0,0 l/m 0 min 0 min 0 W/m 4,5 km/h (1 Bft) 97,87 %
11.06.2018 04:12 16,6 C 15,6 C 15,6 C 89 % 1010,7 hPa 0,0 l/m 0 min 0 min 0 W/m 6,8 km/h (2 Bft) 97,83 %
11.06.2018 04:14 16,6 C 15,6 C 15,6 C 89 % 1010,7 hPa 0,0 l/m 0 min 0 min 0 W/m 2,3 km/h (1 Bft) 97,87 %
11.06.2018 04:16 16,6 C 15,6 C 15,6 C 89 % 1010,6 hPa 0,0 l/m 0 min 0 min 0 W/m 4,5 km/h (1 Bft) 97,87 %
11.06.2018 04:18 16,5 C 15,6 C 15,6 C 89 % 1010,5 hPa 0,0 l/m 0 min 0 min 0 W/m 2,3 km/h (1 Bft) 97,87 %
11.06.2018 04:20 16,5 C 15,6 C 15,6 C 89 % 1010,5 hPa 0,0 l/m 0 min 0 min 0 W/m 4,5 km/h (1 Bft) 97,87 %
11.06.2018 04:22 16,5 C 15,6 C 15,6 C 89 % 1010,5 hPa 0,0 l/m 0 min 0 min 0 W/m 4,5 km/h (1 Bft) 93,48 %
11.06.2018 04:24 16,4 C 15,6 C 15,6 C 90 % 1010,6 hPa 0,0 l/m 0 min 0 min 0 W/m 0,0 km/h (0 Bft) 97,87 %
11.06.2018 04:26 16,4 C 15,6 C 15,6 C 90 % 1010,6 hPa 0,0 l/m 0 min 0 min 0 W/m 4,5 km/h (1 Bft) 97,87 %
11.06.2018 04:28 16,4 C 15,6 C 15,6 C 90 % 1010,6 hPa 0,0 l/m 0 min 0 min 0 W/m 4,5 km/h (1 Bft) 97,87 %
11.06.2018 04:30 16,4 C 15,6 C 15,6 C 90 % 1010,6 hPa 0,0 l/m 0 min 0 min 0 W/m 2,3 km/h (1 Bft) 95,74 %
11.06.2018 04:32 16,4 C 15,6 C 15,6 C 90 % 1010,6 hPa 0,0 l/m 0 min 0 min 0 W/m 0,0 km/h (0 Bft) 97,87 %
11.06.2018 04:34 16,3 C 15,0 C 15,6 C 90 % 1010,6 hPa 0,0 l/m 0 min 0 min 0 W/m 2,3 km/h (1 Bft) 97,83 %
11.06.2018 04:38 16,3 C 15,0 C 15,6 C 90 % 1010,5 hPa 0,0 l/m 0 min 0 min 0 W/m 2,3 km/h (1 Bft) 97,87 %
11.06.2018 04:40 16,3 C 15,0 C 15,6 C 90 % 1010,5 hPa 0,0 l/m 0 min 0 min 0 W/m 0,0 km/h (0 Bft) 100,00 %
11.06.2018 04:42 16,2 C 15,0 C 15,6 C 90 % 1010,5 hPa 0,0 l/m 0 min 0 min 0 W/m 6,8 km/h (2 Bft) 100,00 %
11.06.2018 04:44 16,2 C 15,0 C 15,0 C 90 % 1010,5 hPa 0,0 l/m 0 min 0 min 0 W/m 6,8 km/h (2 Bft) 100,00 %
11.06.2018 04:46 16,2 C 15,0 C 15,0 C 90 % 1010,5 hPa 0,0 l/m 0 min 0 min 0 W/m 6,8 km/h (2 Bft) 100,00 %
11.06.2018 04:48 16,2 C 15,0 C 15,0 C 90 % 1010,4 hPa 0,0 l/m 0 min 0 min 0 W/m 6,8 km/h (2 Bft) 100,00 %
11.06.2018 04:50 16,1 C 15,0 C 15,0 C 90 % 1010,4 hPa 0,0 l/m 0 min 0 min 0 W/m 4,5 km/h (1 Bft) 97,87 %
11.06.2018 04:52 16,1 C 15,0 C 15,0 C 90 % 1010,4 hPa 0,0 l/m 0 min 0 min 0 W/m 6,8 km/h (2 Bft) 100,00 %
11.06.2018 04:54 16,1 C 15,0 C 15,0 C 90 % 1010,4 hPa 0,0 l/m 0 min 0 min 0 W/m 6,8 km/h (2 Bft) 100,00 %
11.06.2018 04:56 16,1 C 15,0 C 15,0 C 90 % 1010,4 hPa 0,0 l/m 0 min 0 min 0 W/m 4,5 km/h (1 Bft) 100,00 %
11.06.2018 04:58 16,0 C 15,0 C 15,0 C 90 % 1010,5 hPa 0,0 l/m 0 min 0 min 0 W/m 2,3 km/h (1 Bft) 100,00 %
11.06.2018 05:00 16,0 C 15,0 C 15,0 C 90 % 1010,5 hPa 0,0 l/m 0 min 0 min 0 W/m 0,0 km/h (0 Bft) 100,00 %
11.06.2018 05:02 16,0 C 15,0 C 15,0 C 90 % 1010,5 hPa 0,0 l/m 0 min 0 min 0 W/m 2,3 km/h (1 Bft) 100,00 %
11.06.2018 05:04 15,9 C 15,0 C 15,0 C 90 % 1010,5 hPa 0,0 l/m 0 min 0 min 0 W/m 4,5 km/h (1 Bft) 100,00 %
11.06.2018 05:08 15,9 C 15,0 C 15,0 C 90 % 1010,5 hPa 0,0 l/m 0 min 0 min 0 W/m 6,8 km/h (2 Bft) 100,00 %
11.06.2018 05:10 15,8 C 15,0 C 15,0 C 90 % 1010,5 hPa 0,0 l/m 0 min 0 min 0 W/m 2,3 km/h (1 Bft) 100,00 %
11.06.2018 05:12 15,8 C 14,4 C 15,0 C 90 % 1010,5 hPa 0,0 l/m 0 min 0 min 0 W/m 2,3 km/h (1 Bft) 100,00 %
11.06.2018 05:14 15,8 C 14,4 C 15,0 C 90 % 1010,5 hPa 0,0 l/m 0 min 0 min 0 W/m 2,3 km/h (1 Bft) 100,00 %
11.06.2018 05:16 15,8 C 14,4 C 15,0 C 90 % 1010,5 hPa 0,0 l/m 0 min 0 min 0 W/m 4,5 km/h (1 Bft) 100,00 %
11.06.2018 05:18 15,7 C 14,4 C 15,0 C 91 % 1010,5 hPa 0,0 l/m 0 min 0 min 0 W/m 4,5 km/h (1 Bft) 100,00 %
11.06.2018 05:20 15,7 C 14,4 C 15,0 C 91 % 1010,5 hPa 0,0 l/m 0 min 0 min 0 W/m 2,3 km/h (1 Bft) 97,87 %
11.06.2018 05:22 15,7 C 14,4 C 15,0 C 91 % 1010,5 hPa 0,0 l/m 0 min 0 min 4 W/m 4,5 km/h (1 Bft) 100,00 %
11.06.2018 05:24 15,7 C 14,4 C 15,0 C 91 % 1010,5 hPa 0,0 l/m 0 min 0 min 5 W/m 4,5 km/h (1 Bft) 97,87 %
11.06.2018 05:26 15,7 C 14,4 C 15,0 C 91 % 1010,5 hPa 0,0 l/m 0 min 0 min 5 W/m 2,3 km/h (1 Bft) 95,74 %
11.06.2018 05:28 15,6 C 14,4 C 15,0 C 91 % 1010,5 hPa 0,0 l/m 0 min 0 min 5 W/m 2,3 km/h (1 Bft) 95,74 %
11.06.2018 05:30 15,6 C 14,4 C 15,0 C 91 % 1010,5 hPa 0,0 l/m 0 min 0 min 6 W/m 4,5 km/h (1 Bft) 95,74 %
11.06.2018 05:32 15,6 C 14,4 C 14,4 C 91 % 1010,5 hPa 0,0 l/m 0 min 0 min 7 W/m 4,5 km/h (1 Bft) 97,83 %
11.06.2018 05:34 15,6 C 14,4 C 14,4 C 91 % 1010,5 hPa 0,0 l/m 0 min 0 min 8 W/m 4,5 km/h (1 Bft) 95,74 %
11.06.2018 05:35 15,5 C 14,4 C 14,4 C 91 % 1010,5 hPa 0,0 l/m 0 min 0 min 8 W/m 11,3 km/h (2 Bft) 99,12 %
11.06.2018 05:40 15,4 C 14,4 C 14,4 C 91 % 1010,5 hPa 0,0 l/m 0 min 0 min 9 W/m 0,0 km/h (0 Bft) 100,00 %
11.06.2018 05:42 15,4 C 14,4 C 14,4 C 91 % 1010,5 hPa 0,0 l/m 0 min 0 min 9 W/m 13,5 km/h (3 Bft) 95,65 %
11.06.2018 05:44 15,4 C 14,4 C 14,4 C 91 % 1010,5 hPa 0,0 l/m 0 min 0 min 9 W/m 4,5 km/h (1 Bft) 97,87 %
11.06.2018 05:46 15,4 C 14,4 C 14,4 C 91 % 1010,5 hPa 0,0 l/m 0 min 0 min 11 W/m 4,5 km/h (1 Bft) 93,62 %
11.06.2018 05:48 15,4 C 14,4 C 14,4 C 91 % 1010,5 hPa 0,0 l/m 0 min 0 min 11 W/m 4,5 km/h (1 Bft) 95,74 %
11.06.2018 05:50 15,3 C 14,4 C 14,4 C 91 % 1010,4 hPa 0,0 l/m 0 min 0 min 11 W/m 4,5 km/h (1 Bft) 95,74 %
11.06.2018 05:52 15,3 C 14,4 C 14,4 C 91 % 1010,5 hPa 0,0 l/m 0 min 0 min 11 W/m 0,0 km/h (0 Bft) 95,74 %
11.06.2018 05:54 15,3 C 14,4 C 14,4 C 91 % 1010,5 hPa 0,0 l/m 0 min 0 min 12 W/m 4,5 km/h (1 Bft) 95,65 %
11.06.2018 05:56 15,3 C 14,4 C 14,4 C 91 % 1010,5 hPa 0,0 l/m 0 min 0 min 12 W/m 2,3 km/h (1 Bft) 95,74 %
11.06.2018 05:58 15,3 C 14,4 C 14,4 C 92 % 1010,5 hPa 0,0 l/m 0 min 0 min 13 W/m 2,3 km/h (1 Bft) 95,74 %
11.06.2018 06:00 15,3 C 14,4 C 14,4 C 92 % 1010,5 hPa 0,0 l/m 0 min 0 min 14 W/m 9,0 km/h (2 Bft) 94,29 %
11.06.2018 06:02 15,2 C 14,4 C 14,4 C 92 % 1010,5 hPa 0,0 l/m 0 min 0 min 16 W/m 11,3 km/h (2 Bft) 94,92 %
11.06.2018 06:04 15,2 C 14,4 C 14,4 C 92 % 1010,5 hPa 0,0 l/m 0 min 0 min 18 W/m 4,5 km/h (1 Bft) 95,74 %
11.06.2018 06:08 15,2 C 14,4 C 14,4 C 92 % 1010,6 hPa 0,0 l/m 0 min 0 min 22 W/m 6,8 km/h (2 Bft) 95,24 %
11.06.2018 06:10 15,2 C 14,4 C 14,4 C 92 % 1010,6 hPa 0,0 l/m 0 min 0 min 25 W/m 4,5 km/h (1 Bft) 93,62 %
11.06.2018 06:12 15,2 C 14,4 C 14,4 C 92 % 1010,5 hPa 0,0 l/m 0 min 0 min 26 W/m 0,0 km/h (0 Bft) 97,87 %
11.06.2018 06:14 15,2 C 14,4 C 14,4 C 92 % 1010,6 hPa 0,0 l/m 0 min 0 min 28 W/m 2,3 km/h (1 Bft) 95,74 %
11.06.2018 06:16 15,2 C 14,4 C 14,4 C 92 % 1010,6 hPa 0,0 l/m 0 min 0 min 30 W/m 2,3 km/h (1 Bft) 95,74 %
11.06.2018 06:18 15,2 C 14,4 C 14,4 C 92 % 1010,7 hPa 0,0 l/m 0 min 0 min 32 W/m 2,3 km/h (1 Bft) 95,74 %
11.06.2018 06:20 15,2 C 15,0 C 14,4 C 92 % 1010,6 hPa 0,0 l/m 0 min 0 min 32 W/m 4,5 km/h (1 Bft) 95,65 %
11.06.2018 06:22 15,1 C 15,0 C 14,4 C 92 % 1010,7 hPa 0,0 l/m 0 min 0 min 33 W/m 2,3 km/h (1 Bft) 91,67 %
11.06.2018 06:24 15,1 C 15,0 C 14,4 C 92 % 1010,7 hPa 0,0 l/m 0 min 0 min 33 W/m 4,5 km/h (1 Bft) 97,87 %
11.06.2018 06:26 15,1 C 15,0 C 14,4 C 92 % 1010,6 hPa 0,0 l/m 0 min 0 min 33 W/m 4,5 km/h (1 Bft) 95,74 %
11.06.2018 06:28 15,1 C 15,0 C 14,4 C 92 % 1010,6 hPa 0,0 l/m 0 min 0 min 36 W/m 0,0 km/h (0 Bft) 95,74 %
11.06.2018 06:30 15,1 C 15,0 C 15,0 C 92 % 1010,7 hPa 0,0 l/m 0 min 0 min 41 W/m 4,5 km/h (1 Bft) 95,65 %
11.06.2018 06:32 15,1 C 15,0 C 14,4 C 92 % 1010,7 hPa 0,0 l/m 0 min 0 min 43 W/m 9,0 km/h (2 Bft) 93,62 %
11.06.2018 06:34 15,1 C 15,0 C 14,4 C 92 % 1010,5 hPa 0,0 l/m 0 min 0 min 43 W/m 2,3 km/h (1 Bft) 95,74 %
11.06.2018 06:36 15,1 C 15,0 C 15,0 C 92 % 1010,5 hPa 0,0 l/m 0 min 0 min 41 W/m 4,5 km/h (1 Bft) 93,62 %
11.06.2018 06:38 15,1 C 15,0 C 15,0 C 92 % 1010,5 hPa 0,0 l/m 0 min 0 min 42 W/m 2,3 km/h (1 Bft) 95,74 %
11.06.2018 06:40 15,1 C 15,0 C 15,0 C 92 % 1010,5 hPa 0,0 l/m 0 min 0 min 47 W/m 4,5 km/h (1 Bft) 93,62 %
11.06.2018 06:42 15,2 C 15,0 C 15,0 C 92 % 1010,5 hPa 0,0 l/m 0 min 0 min 53 W/m 9,0 km/h (2 Bft) 95,65 %
11.06.2018 06:44 15,2 C 15,6 C 15,0 C 92 % 1010,5 hPa 0,0 l/m 0 min 0 min 59 W/m 6,8 km/h (2 Bft) 95,74 %
11.06.2018 06:46 15,2 C 15,6 C 15,0 C 92 % 1010,4 hPa 0,0 l/m 0 min 0 min 60 W/m 9,0 km/h (2 Bft) 97,87 %
11.06.2018 06:48 15,2 C 15,6 C 15,0 C 92 % 1010,4 hPa 0,0 l/m 0 min 0 min 62 W/m 4,5 km/h (1 Bft) 95,74 %
11.06.2018 06:50 15,2 C 15,6 C 15,0 C 92 % 1010,4 hPa 0,0 l/m 0 min 0 min 55 W/m 9,0 km/h (2 Bft) 97,87 %
11.06.2018 06:52 15,2 C 15,6 C 15,0 C 92 % 1010,4 hPa 0,0 l/m 0 min 0 min 62 W/m 9,0 km/h (2 Bft) 97,87 %
11.06.2018 06:54 15,2 C 15,6 C 15,0 C 92 % 1010,4 hPa 0,0 l/m 0 min 0 min 73 W/m 4,5 km/h (1 Bft) 97,87 %
11.06.2018 06:56 15,2 C 15,6 C 15,0 C 92 % 1010,4 hPa 0,0 l/m 0 min 0 min 73 W/m 4,5 km/h (1 Bft) 95,65 %
11.06.2018 06:58 15,3 C 15,6 C 15,0 C 92 % 1010,5 hPa 0,0 l/m 0 min 0 min 68 W/m 4,5 km/h (1 Bft) 93,62 %
11.06.2018 07:00 15,3 C 15,6 C 15,0 C 92 % 1010,4 hPa 0,0 l/m 0 min 0 min 73 W/m 2,3 km/h (1 Bft) 95,74 %
11.06.2018 07:02 15,3 C 15,6 C 15,0 C 92 % 1010,4 hPa 0,0 l/m 0 min 0 min 73 W/m 2,3 km/h (1 Bft) 97,87 %
11.06.2018 07:04 15,3 C 15,6 C 15,0 C 92 % 1010,5 hPa 0,0 l/m 0 min 0 min 71 W/m 6,8 km/h (2 Bft) 97,87 %
11.06.2018 07:06 15,3 C 16,1 C 15,0 C 92 % 1010,5 hPa 0,0 l/m 0 min 0 min 77 W/m 2,3 km/h (1 Bft) 97,92 %
11.06.2018 07:08 15,3 C 16,1 C 15,0 C 92 % 1010,5 hPa 0,0 l/m 0 min 0 min 72 W/m 9,0 km/h (2 Bft) 97,87 %
11.06.2018 07:10 15,4 C 16,1 C 15,0 C 92 % 1010,6 hPa 0,0 l/m 0 min 0 min 78 W/m 9,0 km/h (2 Bft) 97,87 %
11.06.2018 07:12 15,4 C 16,1 C 15,0 C 92 % 1010,7 hPa 0,0 l/m 0 min 0 min 83 W/m 9,0 km/h (2 Bft) 100,00 %
11.06.2018 07:14 15,4 C 16,1 C 15,0 C 92 % 1010,7 hPa 0,0 l/m 0 min 0 min 74 W/m 11,3 km/h (2 Bft) 100,00 %
11.06.2018 07:16 15,4 C 16,1 C 15,0 C 92 % 1010,7 hPa 0,0 l/m 0 min 0 min 79 W/m 11,3 km/h (2 Bft) 97,87 %
11.06.2018 07:18 15,5 C 16,1 C 15,0 C 91 % 1010,7 hPa 0,0 l/m 0 min 0 min 83 W/m 9,0 km/h (2 Bft) 97,87 %
11.06.2018 07:20 15,5 C 16,1 C 15,0 C 91 % 1010,6 hPa 0,0 l/m 0 min 0 min 80 W/m 6,8 km/h (2 Bft) 100,00 %
11.06.2018 07:22 15,5 C 16,1 C 15,0 C 91 % 1010,7 hPa 0,0 l/m 0 min 0 min 72 W/m 6,8 km/h (2 Bft) 100,00 %
11.06.2018 07:24 15,6 C 16,1 C 15,0 C 91 % 1010,7 hPa 0,0 l/m 0 min 0 min 74 W/m 9,0 km/h (2 Bft) 100,00 %
11.06.2018 07:26 15,6 C 16,1 C 15,0 C 91 % 1010,7 hPa 0,0 l/m 0 min 0 min 80 W/m 6,8 km/h (2 Bft) 100,00 %
11.06.2018 07:28 15,6 C 16,1 C 15,0 C 91 % 1010,7 hPa 0,0 l/m 0 min 0 min 88 W/m 6,8 km/h (2 Bft) 100,00 %
11.06.2018 07:30 15,6 C 16,1 C 15,6 C 91 % 1010,8 hPa 0,0 l/m 0 min 0 min 90 W/m 6,8 km/h (2 Bft) 100,00 %
11.06.2018 07:32 15,7 C 16,7 C 15,6 C 91 % 1010,7 hPa 0,0 l/m 0 min 0 min 102 W/m 9,0 km/h (2 Bft) 100,00 %
11.06.2018 07:34 15,7 C 16,7 C 15,6 C 91 % 1010,7 hPa 0,0 l/m 0 min 0 min 96 W/m 6,8 km/h (2 Bft) 100,00 %
11.06.2018 07:36 15,7 C 16,7 C 15,6 C 91 % 1010,7 hPa 0,0 l/m 0 min 0 min 95 W/m 6,8 km/h (2 Bft) 100,00 %
11.06.2018 07:38 15,8 C 16,7 C 15,6 C 91 % 1010,7 hPa 0,0 l/m 0 min 0 min 116 W/m 4,5 km/h (1 Bft) 100,00 %
11.06.2018 07:40 15,8 C 16,7 C 15,6 C 91 % 1010,7 hPa 0,0 l/m 0 min 0 min 118 W/m 9,0 km/h (2 Bft) 100,00 %
11.06.2018 07:42 15,8 C 17,2 C 15,6 C 91 % 1010,7 hPa 0,0 l/m 0 min 0 min 125 W/m 4,5 km/h (1 Bft) 100,00 %
11.06.2018 07:44 15,9 C 17,2 C 15,6 C 91 % 1010,7 hPa 0,0 l/m 0 min 0 min 126 W/m 9,0 km/h (2 Bft) 100,00 %
11.06.2018 07:46 15,9 C 17,2 C 16,1 C 91 % 1010,7 hPa 0,0 l/m 0 min 0 min 120 W/m 4,5 km/h (1 Bft) 100,00 %
11.06.2018 07:48 16,0 C 17,2 C 16,1 C 91 % 1010,6 hPa 0,0 l/m 0 min 0 min 118 W/m 9,0 km/h (2 Bft) 100,00 %
11.06.2018 07:50 16,1 C 17,2 C 16,1 C 91 % 1010,7 hPa 0,0 l/m 0 min 0 min 127 W/m 6,8 km/h (2 Bft) 100,00 %
11.06.2018 07:52 16,1 C 17,2 C 16,1 C 91 % 1010,8 hPa 0,0 l/m 0 min 0 min 149 W/m 6,8 km/h (2 Bft) 100,00 %
11.06.2018 07:54 16,2 C 17,8 C 16,1 C 91 % 1010,7 hPa 0,0 l/m 0 min 0 min 160 W/m 9,0 km/h (2 Bft) 100,00 %
11.06.2018 07:56 16,2 C 17,8 C 16,1 C 91 % 1010,8 hPa 0,0 l/m 0 min 0 min 165 W/m 11,3 km/h (2 Bft) 100,00 %
11.06.2018 07:58 16,3 C 18,3 C 16,1 C 91 % 1010,9 hPa 0,0 l/m 0 min 0 min 159 W/m 6,8 km/h (2 Bft) 100,00 %
11.06.2018 08:00 16,3 C 18,3 C 16,1 C 91 % 1010,9 hPa 0,0 l/m 0 min 0 min 162 W/m 11,3 km/h (2 Bft) 97,87 %
11.06.2018 08:02 16,4 C 18,3 C 16,1 C 91 % 1010,9 hPa 0,0 l/m 0 min 0 min 156 W/m 6,8 km/h (2 Bft) 100,00 %
11.06.2018 08:04 16,4 C 18,3 C 16,1 C 90 % 1010,9 hPa 0,0 l/m 0 min 0 min 165 W/m 6,8 km/h (2 Bft) 97,87 %
11.06.2018 08:06 16,5 C 18,3 C 16,1 C 90 % 1010,9 hPa 0,0 l/m 0 min 0 min 152 W/m 6,8 km/h (2 Bft) 100,00 %
11.06.2018 08:08 16,6 C 18,3 C 16,1 C 90 % 1010,9 hPa 0,0 l/m 0 min 0 min 155 W/m 9,0 km/h (2 Bft) 100,00 %
11.06.2018 08:10 16,6 C 18,3 C 16,1 C 90 % 1010,9 hPa 0,0 l/m 0 min 0 min 145 W/m 6,8 km/h (2 Bft) 100,00 %
11.06.2018 08:12 16,7 C 18,3 C 16,1 C 90 % 1010,8 hPa 0,0 l/m 0 min 0 min 147 W/m 6,8 km/h (2 Bft) 100,00 %
11.06.2018 08:14 16,7 C 18,3 C 16,1 C 90 % 1010,9 hPa 0,0 l/m 0 min 0 min 142 W/m 4,5 km/h (1 Bft) 100,00 %
11.06.2018 08:16 16,8 C 18,3 C 16,1 C 89 % 1010,8 hPa 0,0 l/m 0 min 0 min 134 W/m 6,8 km/h (2 Bft) 97,87 %
11.06.2018 08:18 16,8 C 18,3 C 16,1 C 89 % 1010,8 hPa 0,0 l/m 0 min 0 min 127 W/m 9,0 km/h (2 Bft) 97,87 %
11.06.2018 08:20 16,9 C 18,3 C 16,1 C 89 % 1010,9 hPa 0,0 l/m 0 min 0 min 122 W/m 11,3 km/h (2 Bft) 97,87 %
11.06.2018 08:22 16,9 C 18,3 C 16,1 C 89 % 1010,9 hPa 0,0 l/m 0 min 0 min 113 W/m 6,8 km/h (2 Bft) 97,50 %
11.06.2018 08:24 16,9 C 18,3 C 16,1 C 89 % 1010,9 hPa 0,0 l/m 0 min 0 min 124 W/m 4,5 km/h (1 Bft) 97,87 %
11.06.2018 08:26 17,0 C 18,3 C 16,1 C 89 % 1010,8 hPa 0,0 l/m 0 min 0 min 129 W/m 9,0 km/h (2 Bft) 97,87 %
11.06.2018 08:28 17,1 C 18,3 C 16,7 C 89 % 1010,8 hPa 0,0 l/m 0 min 0 min 128 W/m 6,8 km/h (2 Bft) 97,83 %
11.06.2018 08:30 17,1 C 18,3 C 16,7 C 89 % 1010,8 hPa 0,0 l/m 0 min 0 min 134 W/m 9,0 km/h (2 Bft) 97,87 %
11.06.2018 08:32 17,2 C 18,9 C 16,7 C 89 % 1010,9 hPa 0,0 l/m 0 min 0 min 146 W/m 9,0 km/h (2 Bft) 95,74 %
11.06.2018 08:34 17,2 C 18,9 C 16,7 C 88 % 1010,9 hPa 0,0 l/m 0 min 0 min 130 W/m 6,8 km/h (2 Bft) 97,87 %
11.06.2018 08:36 17,3 C 18,9 C 16,7 C 88 % 1010,9 hPa 0,0 l/m 0 min 0 min 129 W/m 9,0 km/h (2 Bft) 97,87 %
11.06.2018 08:38 17,3 C 18,9 C 16,7 C 88 % 1010,9 hPa 0,0 l/m 0 min 0 min 137 W/m 9,0 km/h (2 Bft) 95,74 %
11.06.2018 08:40 17,3 C 18,9 C 16,7 C 88 % 1010,8 hPa 0,0 l/m 0 min 0 min 146 W/m 6,8 km/h (2 Bft) 97,83 %
11.06.2018 08:42 17,4 C 18,9 C 16,7 C 88 % 1010,8 hPa 0,0 l/m 0 min 0 min 141 W/m 6,8 km/h (2 Bft) 97,87 %
11.06.2018 08:44 17,4 C 18,9 C 16,7 C 87 % 1010,8 hPa 0,0 l/m 0 min 0 min 130 W/m 6,8 km/h (2 Bft) 97,87 %
11.06.2018 08:46 17,5 C 18,9 C 16,7 C 87 % 1010,8 hPa 0,0 l/m 0 min 0 min 123 W/m 13,5 km/h (3 Bft) 95,74 %
11.06.2018 08:48 17,6 C 18,9 C 16,7 C 87 % 1010,8 hPa 0,0 l/m 0 min 0 min 126 W/m 6,8 km/h (2 Bft) 97,87 %
11.06.2018 08:50 17,6 C 18,9 C 17,2 C 87 % 1010,9 hPa 0,0 l/m 0 min 0 min 125 W/m 6,8 km/h (2 Bft) 95,74 %
11.06.2018 08:52 17,7 C 19,4 C 17,2 C 87 % 1010,9 hPa 0,0 l/m 0 min 0 min 116 W/m 6,8 km/h (2 Bft) 97,83 %
11.06.2018 08:54 17,7 C 19,4 C 17,2 C 87 % 1010,8 hPa 0,0 l/m 0 min 0 min 111 W/m 9,0 km/h (2 Bft) 95,74 %
11.06.2018 08:56 17,7 C 20,0 C 17,2 C 87 % 1010,9 hPa 0,0 l/m 0 min 0 min 113 W/m 6,8 km/h (2 Bft) 97,87 %
11.06.2018 08:58 17,8 C 20,0 C 17,2 C 86 % 1010,8 hPa 0,0 l/m 0 min 0 min 108 W/m 9,0 km/h (2 Bft) 97,87 %
11.06.2018 09:00 17,8 C 20,0 C 17,2 C 86 % 1010,9 hPa 0,0 l/m 0 min 0 min 108 W/m 9,0 km/h (2 Bft) 100,00 %
11.06.2018 09:02 17,9 C 20,0 C 17,2 C 86 % 1011,0 hPa 0,0 l/m 0 min 0 min 111 W/m 6,8 km/h (2 Bft) 100,00 %
11.06.2018 09:04 17,9 C 19,4 C 17,2 C 86 % 1010,9 hPa 0,0 l/m 0 min 0 min 112 W/m 6,8 km/h (2 Bft) 97,83 %
11.06.2018 09:06 17,9 C 19,4 C 17,2 C 86 % 1011,0 hPa 0,0 l/m 0 min 0 min 114 W/m 9,0 km/h (2 Bft) 100,00 %
11.06.2018 09:08 18,0 C 19,4 C 17,2 C 86 % 1011,0 hPa 0,0 l/m 0 min 0 min 131 W/m 9,0 km/h (2 Bft) 100,00 %
11.06.2018 09:10 18,1 C 19,4 C 17,2 C 85 % 1011,0 hPa 0,0 l/m 0 min 0 min 151 W/m 13,5 km/h (3 Bft) 95,74 %
11.06.2018 09:12 18,1 C 19,4 C 17,2 C 85 % 1011,1 hPa 0,0 l/m 0 min 0 min 135 W/m 11,3 km/h (2 Bft) 97,87 %
11.06.2018 09:14 18,1 C 18,9 C 17,2 C 84 % 1011,1 hPa 0,0 l/m 0 min 0 min 129 W/m 9,0 km/h (2 Bft) 93,62 %
11.06.2018 09:16 18,2 C 18,9 C 17,2 C 84 % 1011,1 hPa 0,0 l/m 0 min 0 min 150 W/m 9,0 km/h (2 Bft) 97,87 %
11.06.2018 09:18 18,2 C 19,4 C 17,2 C 84 % 1011,1 hPa 0,0 l/m 0 min 0 min 170 W/m 6,8 km/h (2 Bft) 95,74 %
11.06.2018 09:20 18,2 C 20,0 C 17,2 C 84 % 1010,9 hPa 0,0 l/m 0 min 0 min 129 W/m 9,0 km/h (2 Bft) 95,65 %
11.06.2018 09:22 18,3 C 20,6 C 17,2 C 84 % 1011,0 hPa 0,0 l/m 0 min 0 min 130 W/m 6,8 km/h (2 Bft) 93,62 %
11.06.2018 09:24 18,3 C 20,0 C 17,2 C 84 % 1010,9 hPa 0,0 l/m 0 min 0 min 133 W/m 11,3 km/h (2 Bft) 93,62 %
11.06.2018 09:26 18,3 C 20,0 C 17,2 C 83 % 1010,9 hPa 0,0 l/m 0 min 0 min 136 W/m 9,0 km/h (2 Bft) 95,74 %
11.06.2018 09:28 18,4 C 20,0 C 17,2 C 83 % 1011,0 hPa 0,0 l/m 0 min 0 min 194 W/m 6,8 km/h (2 Bft) 95,74 %
11.06.2018 09:30 18,4 C 20,0 C 17,8 C 83 % 1011,0 hPa 0,0 l/m 0 min 0 min 222 W/m 6,8 km/h (2 Bft) 95,74 %
11.06.2018 09:32 18,5 C 20,0 C 17,8 C 83 % 1011,0 hPa 0,0 l/m 0 min 0 min 148 W/m 11,3 km/h (2 Bft) 95,65 %
11.06.2018 09:34 18,5 C 20,0 C 17,8 C 82 % 1011,0 hPa 0,0 l/m 0 min 0 min 139 W/m 11,3 km/h (2 Bft) 95,74 %
11.06.2018 09:36 18,6 C 20,0 C 17,8 C 83 % 1010,9 hPa 0,0 l/m 0 min 0 min 128 W/m 6,8 km/h (2 Bft) 95,74 %
11.06.2018 09:38 18,6 C 20,0 C 17,8 C 83 % 1011,0 hPa 0,0 l/m 0 min 0 min 120 W/m 11,3 km/h (2 Bft) 95,74 %
11.06.2018 09:40 18,7 C 20,0 C 17,8 C 83 % 1010,9 hPa 0,0 l/m 0 min 0 min 116 W/m 11,3 km/h (2 Bft) 95,74 %
11.06.2018 09:42 18,7 C 20,0 C 18,3 C 82 % 1010,9 hPa 0,0 l/m 0 min 0 min 116 W/m 6,8 km/h (2 Bft) 95,74 %
11.06.2018 09:44 18,8 C 20,0 C 17,8 C 82 % 1010,9 hPa 0,0 l/m 0 min 0 min 118 W/m 18,0 km/h (3 Bft) 95,65 %
11.06.2018 09:46 18,8 C 20,0 C 17,8 C 81 % 1010,9 hPa 0,0 l/m 0 min 0 min 117 W/m 11,3 km/h (2 Bft) 95,74 %
11.06.2018 09:48 18,9 C 20,0 C 17,8 C 81 % 1011,0 hPa 0,0 l/m 0 min 0 min 125 W/m 13,5 km/h (3 Bft) 95,74 %
11.06.2018 09:50 18,9 C 19,4 C 17,8 C 80 % 1010,8 hPa 0,0 l/m 0 min 0 min 133 W/m 11,3 km/h (2 Bft) 95,74 %
11.06.2018 09:52 18,9 C 19,4 C 17,8 C 80 % 1010,9 hPa 0,0 l/m 0 min 0 min 140 W/m 13,5 km/h (3 Bft) 91,49 %
11.06.2018 09:54 18,9 C 20,0 C 17,8 C 80 % 1010,9 hPa 0,0 l/m 0 min 0 min 151 W/m 11,3 km/h (2 Bft) 95,74 %
11.06.2018 09:56 19,0 C 20,0 C 17,8 C 80 % 1010,9 hPa 0,0 l/m 0 min 0 min 199 W/m 13,5 km/h (3 Bft) 95,65 %
11.06.2018 09:58 19,1 C 20,0 C 17,8 C 80 % 1010,9 hPa 0,0 l/m 0 min 0 min 208 W/m 13,5 km/h (3 Bft) 95,74 %
11.06.2018 10:00 19,1 C 20,0 C 17,8 C 80 % 1010,9 hPa 0,0 l/m 0 min 0 min 180 W/m 11,3 km/h (2 Bft) 95,74 %
11.06.2018 10:02 19,1 C 20,0 C 17,8 C 79 % 1010,9 hPa 0,0 l/m 0 min 0 min 142 W/m 6,8 km/h (2 Bft) 93,62 %
11.06.2018 10:04 19,1 C 20,0 C 17,8 C 79 % 1010,8 hPa 0,0 l/m 0 min 0 min 140 W/m 11,3 km/h (2 Bft) 95,74 %
11.06.2018 10:06 19,1 C 20,0 C 17,8 C 79 % 1010,8 hPa 0,0 l/m 0 min 0 min 155 W/m 6,8 km/h (2 Bft) 97,87 %
11.06.2018 10:08 19,1 C 20,0 C 17,8 C 79 % 1010,7 hPa 0,0 l/m 0 min 0 min 150 W/m 15,8 km/h (3 Bft) 100,00 %
11.06.2018 10:10 19,1 C 19,4 C 17,8 C 79 % 1010,7 hPa 0,0 l/m 0 min 0 min 149 W/m 9,0 km/h (2 Bft) 97,87 %
11.06.2018 10:12 19,1 C 20,0 C 17,8 C 80 % 1010,7 hPa 0,0 l/m 0 min 0 min 168 W/m 11,3 km/h (2 Bft) 97,87 %
11.06.2018 10:14 19,1 C 20,0 C 17,8 C 80 % 1010,7 hPa 0,0 l/m 0 min 0 min 185 W/m 11,3 km/h (2 Bft) 100,00 %
11.06.2018 10:16 19,1 C 20,0 C 17,8 C 79 % 1010,6 hPa 0,0 l/m 0 min 0 min 188 W/m 11,3 km/h (2 Bft) 100,00 %
11.06.2018 10:18 19,1 C 20,0 C 17,8 C 79 % 1010,7 hPa 0,0 l/m 0 min 0 min 254 W/m 11,3 km/h (2 Bft) 100,00 %
11.06.2018 10:20 19,1 C 20,6 C 17,8 C 79 % 1010,7 hPa 0,0 l/m 0 min 0 min 323 W/m 6,8 km/h (2 Bft) 100,00 %
11.06.2018 10:22 19,1 C 20,6 C 18,3 C 79 % 1010,7 hPa 0,0 l/m 0 min 0 min 227 W/m 11,3 km/h (2 Bft) 97,87 %
11.06.2018 10:24 19,1 C 20,6 C 18,3 C 79 % 1010,7 hPa 0,0 l/m 0 min 0 min 212 W/m 11,3 km/h (2 Bft) 100,00 %
11.06.2018 10:26 19,2 C 21,1 C 18,3 C 80 % 1010,6 hPa 0,0 l/m 0 min 0 min 214 W/m 9,0 km/h (2 Bft) 100,00 %
11.06.2018 10:28 19,2 C 21,1 C 18,3 C 80 % 1010,6 hPa 0,0 l/m 0 min 0 min 211 W/m 9,0 km/h (2 Bft) 100,00 %
11.06.2018 10:30 19,3 C 21,1 C 18,3 C 80 % 1010,6 hPa 0,0 l/m 0 min 0 min 229 W/m 13,5 km/h (3 Bft) 100,00 %
11.06.2018 10:32 19,3 C 21,1 C 18,3 C 79 % 1010,6 hPa 0,0 l/m 0 min 0 min 225 W/m 15,8 km/h (3 Bft) 97,83 %
11.06.2018 10:34 19,3 C 21,1 C 18,3 C 78 % 1010,5 hPa 0,0 l/m 0 min 0 min 236 W/m 13,5 km/h (3 Bft) 100,00 %
11.06.2018 10:36 19,4 C 21,1 C 18,9 C 79 % 1010,5 hPa 0,0 l/m 0 min 0 min 252 W/m 11,3 km/h (2 Bft) 97,87 %
11.06.2018 10:38 19,5 C 21,7 C 18,9 C 79 % 1010,5 hPa 0,0 l/m 0 min 0 min 250 W/m 11,3 km/h (2 Bft) 100,00 %
11.06.2018 10:40 19,6 C 22,2 C 18,9 C 79 % 1010,6 hPa 0,0 l/m 0 min 0 min 250 W/m 11,3 km/h (2 Bft) 100,00 %
11.06.2018 10:42 19,6 C 22,2 C 18,9 C 79 % 1010,6 hPa 0,0 l/m 0 min 0 min 246 W/m 9,0 km/h (2 Bft) 100,00 %
11.06.2018 10:44 19,7 C 22,2 C 18,9 C 79 % 1010,6 hPa 0,0 l/m 0 min 0 min 239 W/m 9,0 km/h (2 Bft) 100,00 %
11.06.2018 10:46 19,8 C 21,7 C 18,9 C 79 % 1010,5 hPa 0,0 l/m 0 min 0 min 223 W/m 9,0 km/h (2 Bft) 100,00 %
11.06.2018 10:48 19,8 C 21,1 C 18,9 C 78 % 1010,5 hPa 0,0 l/m 0 min 0 min 228 W/m 9,0 km/h (2 Bft) 95,74 %
11.06.2018 10:50 19,8 C 21,1 C 18,9 C 77 % 1010,6 hPa 0,0 l/m 0 min 0 min 262 W/m 13,5 km/h (3 Bft) 97,87 %
11.06.2018 10:52 19,9 C 21,1 C 18,9 C 77 % 1010,6 hPa 0,0 l/m 0 min 0 min 251 W/m 9,0 km/h (2 Bft) 97,87 %
11.06.2018 10:54 19,9 C 21,1 C 18,3 C 77 % 1010,7 hPa 0,0 l/m 0 min 0 min 240 W/m 11,3 km/h (2 Bft) 97,83 %
11.06.2018 10:56 19,9 C 21,1 C 18,3 C 77 % 1010,8 hPa 0,0 l/m 0 min 0 min 254 W/m 9,0 km/h (2 Bft) 97,87 %
11.06.2018 10:58 19,9 C 21,7 C 18,3 C 77 % 1010,8 hPa 0,0 l/m 0 min 0 min 285 W/m 13,5 km/h (3 Bft) 95,74 %
11.06.2018 11:00 19,9 C 21,7 C 18,3 C 77 % 1010,8 hPa 0,0 l/m 0 min 0 min 287 W/m 6,8 km/h (2 Bft) 97,87 %
11.06.2018 11:02 20,0 C 22,2 C 18,9 C 77 % 1010,7 hPa 0,0 l/m 0 min 0 min 308 W/m 6,8 km/h (2 Bft) 95,74 %
11.06.2018 11:04 20,1 C 22,2 C 18,9 C 78 % 1010,7 hPa 0,0 l/m 0 min 0 min 357 W/m 11,3 km/h (2 Bft) 97,87 %
11.06.2018 11:06 20,1 C 22,8 C 18,9 C 77 % 1010,7 hPa 0,0 l/m 0 min 0 min 341 W/m 13,5 km/h (3 Bft) 97,83 %
11.06.2018 11:08 20,2 C 22,2 C 18,9 C 77 % 1010,7 hPa 0,0 l/m 0 min 0 min 302 W/m 13,5 km/h (3 Bft) 97,87 %
11.06.2018 11:10 20,2 C 23,3 C 18,9 C 76 % 1010,8 hPa 0,0 l/m 0 min 0 min 315 W/m 9,0 km/h (2 Bft) 97,87 %
11.06.2018 11:12 20,3 C 23,3 C 18,9 C 76 % 1010,8 hPa 0,0 l/m 0 min 0 min 315 W/m 11,3 km/h (2 Bft) 97,87 %
11.06.2018 11:14 20,3 C 23,9 C 19,4 C 76 % 1010,9 hPa 0,0 l/m 0 min 0 min 312 W/m 15,8 km/h (3 Bft) 95,74 %
11.06.2018 11:16 20,4 C 25,0 C 19,4 C 76 % 1010,8 hPa 0,0 l/m 0 min 0 min 274 W/m 11,3 km/h (2 Bft) 97,87 %
11.06.2018 11:18 20,6 C 26,1 C 19,4 C 76 % 1010,9 hPa 0,0 l/m 0 min 0 min 327 W/m 9,0 km/h (2 Bft) 97,83 %
11.06.2018 11:20 20,7 C 24,4 C 19,4 C 75 % 1011,0 hPa 0,0 l/m 0 min 0 min 286 W/m 20,3 km/h (4 Bft) 97,87 %
11.06.2018 11:22 20,7 C 24,4 C 19,4 C 74 % 1011,0 hPa 0,0 l/m 0 min 0 min 280 W/m 18,0 km/h (3 Bft) 97,87 %
11.06.2018 11:24 20,8 C 25,6 C 19,4 C 73 % 1010,9 hPa 0,0 l/m 0 min 0 min 316 W/m 11,3 km/h (2 Bft) 97,87 %
11.06.2018 11:26 20,9 C 27,8 C 19,4 C 74 % 1010,9 hPa 0,0 l/m 0 min 0 min 376 W/m 9,0 km/h (2 Bft) 97,87 %
11.06.2018 11:28 21,0 C 27,8 C 20,0 C 74 % 1010,9 hPa 0,0 l/m 0 min 0 min 376 W/m 13,5 km/h (3 Bft) 97,87 %
11.06.2018 11:30 21,2 C 27,8 C 20,0 C 73 % 1010,9 hPa 0,0 l/m 0 min 0 min 376 W/m 18,0 km/h (3 Bft) 100,00 %
11.06.2018 11:32 21,3 C 28,3 C 20,0 C 73 % 1010,8 hPa 0,0 l/m 2 min 0 min 562 W/m 9,0 km/h (2 Bft) 100,00 %
11.06.2018 11:34 21,4 C 27,8 C 20,0 C 72 % 1010,8 hPa 0,0 l/m 2 min 0 min 710 W/m 13,5 km/h (3 Bft) 100,00 %
11.06.2018 11:36 21,4 C 27,8 C 20,0 C 72 % 1010,7 hPa 0,0 l/m 2 min 0 min 584 W/m 9,0 km/h (2 Bft) 93,62 %
11.06.2018 11:38 21,6 C 28,9 C 19,4 C 72 % 1010,8 hPa 0,0 l/m 2 min 0 min 724 W/m 6,8 km/h (2 Bft) 100,00 %
11.06.2018 11:40 21,6 C 27,8 C 20,0 C 70 % 1010,8 hPa 0,0 l/m 2 min 0 min 753 W/m 18,0 km/h (3 Bft) 100,00 %
11.06.2018 11:42 21,7 C 28,3 C 20,0 C 71 % 1010,8 hPa 0,0 l/m 2 min 0 min 792 W/m 15,8 km/h (3 Bft) 97,83 %
11.06.2018 11:44 21,8 C 28,3 C 20,0 C 71 % 1010,8 hPa 0,0 l/m 2 min 0 min 832 W/m 18,0 km/h (3 Bft) 100,00 %
11.06.2018 11:46 21,9 C 28,3 C 20,0 C 70 % 1010,7 hPa 0,0 l/m 2 min 0 min 854 W/m 13,5 km/h (3 Bft) 95,74 %
11.06.2018 11:48 22,0 C 27,8 C 20,0 C 70 % 1010,7 hPa 0,0 l/m 2 min 0 min 834 W/m 11,3 km/h (2 Bft) 100,00 %
11.06.2018 11:50 22,1 C 27,2 C 20,0 C 69 % 1010,8 hPa 0,0 l/m 2 min 0 min 835 W/m 18,0 km/h (3 Bft) 100,00 %
11.06.2018 11:52 22,1 C 28,9 C 20,0 C 69 % 1010,7 hPa 0,0 l/m 2 min 0 min 838 W/m 15,8 km/h (3 Bft) 97,87 %
11.06.2018 11:54 22,2 C 29,4 C 20,6 C 70 % 1010,8 hPa 0,0 l/m 2 min 0 min 834 W/m 13,5 km/h (3 Bft) 100,00 %
11.06.2018 11:56 22,3 C 30,0 C 20,0 C 69 % 1010,8 hPa 0,0 l/m 2 min 0 min 850 W/m 20,3 km/h (4 Bft) 100,00 %
11.06.2018 11:58 22,4 C 29,4 C 20,6 C 69 % 1010,7 hPa 0,0 l/m 2 min 0 min 859 W/m 11,3 km/h (2 Bft) 100,00 %
11.06.2018 12:00 22,6 C 30,0 C 20,6 C 69 % 1010,7 hPa 0,0 l/m 2 min 0 min 861 W/m 9,0 km/h (2 Bft) 100,00 %
11.06.2018 12:02 22,6 C 30,0 C 20,6 C 69 % 1010,7 hPa 0,0 l/m 2 min 0 min 865 W/m 13,5 km/h (3 Bft) 97,87 %
11.06.2018 12:04 22,7 C 30,6 C 20,6 C 69 % 1010,6 hPa 0,0 l/m 2 min 0 min 818 W/m 6,8 km/h (2 Bft) 100,00 %
11.06.2018 12:08 22,9 C 31,1 C 20,6 C 69 % 1010,6 hPa 0,0 l/m 4 min 0 min 858 W/m 11,3 km/h (2 Bft) 98,99 %
11.06.2018 12:10 23,1 C 30,6 C 20,6 C 68 % 1010,6 hPa 0,0 l/m 2 min 0 min 853 W/m 9,0 km/h (2 Bft) 97,87 %
11.06.2018 12:12 23,2 C 31,1 C 20,6 C 68 % 1010,6 hPa 0,0 l/m 2 min 0 min 835 W/m 4,5 km/h (1 Bft) 100,00 %
11.06.2018 12:14 23,2 C 31,1 C 20,6 C 68 % 1010,6 hPa 0,0 l/m 2 min 0 min 839 W/m 9,0 km/h (2 Bft) 100,00 %
11.06.2018 12:16 23,3 C 31,1 C 20,6 C 66 % 1010,6 hPa 0,0 l/m 2 min 0 min 831 W/m 13,5 km/h (3 Bft) 97,87 %
11.06.2018 12:18 23,4 C 30,0 C 20,6 C 66 % 1010,6 hPa 0,0 l/m 2 min 0 min 817 W/m 13,5 km/h (3 Bft) 95,74 %
11.06.2018 12:20 23,4 C 28,9 C 21,1 C 65 % 1010,6 hPa 0,0 l/m 2 min 0 min 819 W/m 11,3 km/h (2 Bft) 95,65 %
11.06.2018 12:22 23,4 C 29,4 C 20,6 C 65 % 1010,7 hPa 0,0 l/m 2 min 0 min 825 W/m 13,5 km/h (3 Bft) 97,87 %
11.06.2018 12:24 23,5 C 28,9 C 20,6 C 64 % 1010,6 hPa 0,0 l/m 2 min 0 min 827 W/m 9,0 km/h (2 Bft) 97,87 %
11.06.2018 12:26 23,6 C 30,0 C 21,1 C 65 % 1010,7 hPa 0,0 l/m 2 min 0 min 839 W/m 6,8 km/h (2 Bft) 97,87 %
11.06.2018 12:28 23,6 C 30,0 C 21,1 C 65 % 1010,6 hPa 0,0 l/m 2 min 0 min 822 W/m 9,0 km/h (2 Bft) 95,74 %
11.06.2018 12:30 23,6 C 30,6 C 21,1 C 64 % 1010,6 hPa 0,0 l/m 2 min 0 min 749 W/m 6,8 km/h (2 Bft) 97,87 %
11.06.2018 12:32 23,7 C 30,0 C 21,1 C 64 % 1010,6 hPa 0,0 l/m 2 min 0 min 811 W/m 13,5 km/h (3 Bft) 97,83 %
11.06.2018 12:34 23,7 C 28,9 C 21,1 C 64 % 1010,5 hPa 0,0 l/m 2 min 0 min 735 W/m 13,5 km/h (3 Bft) 95,74 %
11.06.2018 12:36 23,7 C 28,9 C 21,1 C 64 % 1010,5 hPa 0,0 l/m 2 min 0 min 792 W/m 9,0 km/h (2 Bft) 93,62 %
11.06.2018 12:38 23,7 C 28,9 C 21,1 C 64 % 1010,5 hPa 0,0 l/m 2 min 0 min 836 W/m 9,0 km/h (2 Bft) 95,74 %
11.06.2018 12:40 23,7 C 28,9 C 21,1 C 62 % 1010,6 hPa 0,0 l/m 2 min 0 min 810 W/m 9,0 km/h (2 Bft) 95,74 %
11.06.2018 12:42 23,7 C 30,6 C 21,7 C 64 % 1010,5 hPa 0,0 l/m 2 min 0 min 941 W/m 6,8 km/h (2 Bft) 95,74 %
11.06.2018 12:44 23,8 C 30,6 C 21,7 C 65 % 1010,6 hPa 0,0 l/m 2 min 0 min 956 W/m 9,0 km/h (2 Bft) 95,65 %
11.06.2018 12:46 23,8 C 31,1 C 21,7 C 65 % 1010,5 hPa 0,0 l/m 2 min 0 min 977 W/m 9,0 km/h (2 Bft) 95,74 %
11.06.2018 12:48 23,9 C 30,6 C 22,2 C 65 % 1010,6 hPa 0,0 l/m 2 min 0 min 945 W/m 9,0 km/h (2 Bft) 95,74 %
11.06.2018 12:50 24,0 C 30,6 C 21,7 C 64 % 1010,6 hPa 0,0 l/m 2 min 0 min 748 W/m 6,8 km/h (2 Bft) 95,74 %
11.06.2018 12:52 24,0 C 29,4 C 21,7 C 63 % 1010,6 hPa 0,0 l/m 2 min 0 min 619 W/m 9,0 km/h (2 Bft) 95,74 %
11.06.2018 12:54 24,0 C 27,8 C 21,7 C 62 % 1010,5 hPa 0,0 l/m 2 min 0 min 796 W/m 11,3 km/h (2 Bft) 95,74 %
11.06.2018 12:56 24,0 C 27,2 C 21,7 C 63 % 1010,5 hPa 0,0 l/m 2 min 0 min 753 W/m 13,5 km/h (3 Bft) 95,65 %
11.06.2018 12:58 23,9 C 27,8 C 21,7 C 63 % 1010,5 hPa 0,0 l/m 2 min 0 min 709 W/m 11,3 km/h (2 Bft) 95,74 %
11.06.2018 13:00 23,9 C 28,9 C 21,7 C 63 % 1010,5 hPa 0,0 l/m 2 min 0 min 801 W/m 13,5 km/h (3 Bft) 95,74 %
11.06.2018 13:02 23,9 C 29,4 C 21,7 C 63 % 1010,4 hPa 0,0 l/m 2 min 0 min 896 W/m 11,3 km/h (2 Bft) 95,74 %
11.06.2018 13:04 23,9 C 29,4 C 21,7 C 63 % 1010,4 hPa 0,0 l/m 2 min 0 min 852 W/m 13,5 km/h (3 Bft) 93,62 %
11.06.2018 13:06 23,9 C 28,9 C 21,1 C 62 % 1010,3 hPa 0,0 l/m 2 min 0 min 824 W/m 11,3 km/h (2 Bft) 97,22 %
11.06.2018 13:08 23,9 C 28,9 C 21,7 C 63 % 1010,2 hPa 0,0 l/m 2 min 0 min 556 W/m 13,5 km/h (3 Bft) 95,74 %
11.06.2018 13:10 23,9 C 28,3 C 21,7 C 63 % 1010,2 hPa 0,0 l/m 2 min 0 min 783 W/m 15,8 km/h (3 Bft) 97,83 %
11.06.2018 13:12 23,8 C 27,8 C 22,2 C 62 % 1010,1 hPa 0,0 l/m 2 min 0 min 840 W/m 18,0 km/h (3 Bft) 93,62 %
11.06.2018 13:14 23,8 C 29,4 C 22,2 C 63 % 1010,2 hPa 0,0 l/m 2 min 0 min 861 W/m 13,5 km/h (3 Bft) 95,74 %
11.06.2018 13:16 23,8 C 29,4 C 22,2 C 63 % 1010,1 hPa 0,0 l/m 2 min 0 min 871 W/m 13,5 km/h (3 Bft) 97,87 %
11.06.2018 13:18 23,8 C 29,4 C 22,2 C 63 % 1010,1 hPa 0,0 l/m 2 min 0 min 863 W/m 18,0 km/h (3 Bft) 93,62 %
11.06.2018 13:20 23,8 C 30,0 C 22,2 C 64 % 1010,1 hPa 0,0 l/m 2 min 0 min 853 W/m 15,8 km/h (3 Bft) 95,74 %
11.06.2018 13:22 23,8 C 29,4 C 22,2 C 63 % 1010,1 hPa 0,0 l/m 2 min 0 min 860 W/m 15,8 km/h (3 Bft) 94,83 %
11.06.2018 13:24 23,8 C 29,4 C 22,2 C 62 % 1010,0 hPa 0,0 l/m 2 min 0 min 842 W/m 18,0 km/h (3 Bft) 94,29 %
11.06.2018 13:26 23,9 C 30,0 C 22,2 C 62 % 1010,1 hPa 0,0 l/m 2 min 0 min 612 W/m 11,3 km/h (2 Bft) 95,74 %
11.06.2018 13:28 23,9 C 29,4 C 22,2 C 63 % 1010,1 hPa 0,0 l/m 2 min 0 min 536 W/m 15,8 km/h (3 Bft) 93,62 %
11.06.2018 13:30 23,9 C 29,4 C 22,2 C 62 % 1010,0 hPa 0,0 l/m 2 min 0 min 536 W/m 9,0 km/h (2 Bft) 93,62 %
11.06.2018 13:32 23,9 C 29,4 C 22,2 C 62 % 1010,1 hPa 0,0 l/m 0 min 0 min 299 W/m 11,3 km/h (2 Bft) 95,83 %
11.06.2018 13:34 23,9 C 28,9 C 22,2 C 63 % 1010,0 hPa 0,0 l/m 0 min 0 min 175 W/m 18,0 km/h (3 Bft) 97,83 %
11.06.2018 13:36 23,9 C 28,3 C 22,2 C 62 % 1010,0 hPa 0,0 l/m 0 min 0 min 174 W/m 11,3 km/h (2 Bft) 95,74 %
11.06.2018 13:38 23,9 C 27,2 C 22,2 C 62 % 1010,0 hPa 0,0 l/m 0 min 0 min 180 W/m 6,8 km/h (2 Bft) 95,74 %
11.06.2018 13:40 23,9 C 26,1 C 22,2 C 62 % 1009,9 hPa 0,0 l/m 0 min 0 min 165 W/m 9,0 km/h (2 Bft) 97,87 %
11.06.2018 13:42 23,9 C 25,6 C 22,2 C 63 % 1009,9 hPa 0,0 l/m 0 min 0 min 163 W/m 6,8 km/h (2 Bft) 97,87 %
11.06.2018 13:44 23,9 C 25,0 C 22,2 C 61 % 1009,9 hPa 0,0 l/m 0 min 0 min 161 W/m 11,3 km/h (2 Bft) 95,74 %
11.06.2018 13:46 23,9 C 24,4 C 22,2 C 61 % 1009,8 hPa 0,0 l/m 0 min 0 min 181 W/m 13,5 km/h (3 Bft) 97,83 %
11.06.2018 13:48 23,9 C 23,9 C 22,2 C 61 % 1009,8 hPa 0,0 l/m 0 min 0 min 153 W/m 11,3 km/h (2 Bft) 97,87 %
11.06.2018 13:50 23,9 C 23,9 C 22,2 C 61 % 1009,7 hPa 0,0 l/m 0 min 0 min 154 W/m 11,3 km/h (2 Bft) 97,87 %
11.06.2018 13:52 23,9 C 23,9 C 22,2 C 60 % 1009,8 hPa 0,0 l/m 0 min 0 min 154 W/m 13,5 km/h (3 Bft) 95,83 %
11.06.2018 13:54 23,8 C 23,9 C 21,7 C 60 % 1009,8 hPa 0,0 l/m 0 min 0 min 152 W/m 18,0 km/h (3 Bft) 97,87 %
11.06.2018 13:56 23,8 C 23,9 C 22,2 C 61 % 1009,7 hPa 0,0 l/m 0 min 0 min 151 W/m 11,3 km/h (2 Bft) 97,83 %
11.06.2018 13:58 23,8 C 23,9 C 22,2 C 61 % 1009,7 hPa 0,0 l/m 0 min 0 min 153 W/m 11,3 km/h (2 Bft) 97,87 %
11.06.2018 14:00 23,7 C 23,9 C 22,2 C 61 % 1009,7 hPa 0,0 l/m 0 min 0 min 149 W/m 9,0 km/h (2 Bft) 95,74 %
11.06.2018 14:02 23,7 C 23,9 C 22,2 C 62 % 1009,7 hPa 0,0 l/m 0 min 0 min 148 W/m 13,5 km/h (3 Bft) 100,00 %
11.06.2018 14:04 23,7 C 24,4 C 22,2 C 62 % 1009,6 hPa 0,0 l/m 0 min 0 min 148 W/m 9,0 km/h (2 Bft) 97,87 %
11.06.2018 14:06 23,7 C 24,4 C 22,2 C 61 % 1009,6 hPa 0,0 l/m 0 min 0 min 146 W/m 13,5 km/h (3 Bft) 100,00 %
11.06.2018 14:08 23,7 C 24,4 C 22,2 C 61 % 1009,6 hPa 0,0 l/m 0 min 0 min 147 W/m 11,3 km/h (2 Bft) 100,00 %
11.06.2018 14:10 23,7 C 23,9 C 22,2 C 59 % 1009,6 hPa 0,0 l/m 0 min 0 min 149 W/m 13,5 km/h (3 Bft) 97,87 %
11.06.2018 14:12 23,7 C 23,9 C 22,2 C 58 % 1009,5 hPa 0,0 l/m 0 min 0 min 149 W/m 11,3 km/h (2 Bft) 100,00 %
11.06.2018 14:14 23,7 C 24,4 C 22,2 C 60 % 1009,5 hPa 0,0 l/m 0 min 0 min 152 W/m 11,3 km/h (2 Bft) 100,00 %
11.06.2018 14:16 23,7 C 24,4 C 22,2 C 60 % 1009,5 hPa 0,0 l/m 0 min 0 min 151 W/m 15,8 km/h (3 Bft) 100,00 %
11.06.2018 14:18 23,7 C 23,9 C 22,2 C 60 % 1009,6 hPa 0,0 l/m 0 min 0 min 154 W/m 11,3 km/h (2 Bft) 97,87 %
11.06.2018 14:20 23,7 C 24,4 C 21,7 C 60 % 1009,5 hPa 0,0 l/m 0 min 0 min 161 W/m 13,5 km/h (3 Bft) 100,00 %
11.06.2018 14:22 23,7 C 23,9 C 21,7 C 60 % 1009,7 hPa 0,0 l/m 0 min 0 min 165 W/m 22,5 km/h (4 Bft) 100,00 %
11.06.2018 14:24 23,7 C 23,9 C 22,2 C 60 % 1009,5 hPa 0,0 l/m 0 min 0 min 166 W/m 6,8 km/h (2 Bft) 100,00 %
11.06.2018 14:26 23,8 C 24,4 C 22,2 C 61 % 1009,5 hPa 0,0 l/m 0 min 0 min 168 W/m 15,8 km/h (3 Bft) 100,00 %
11.06.2018 14:28 23,8 C 24,4 C 22,2 C 61 % 1009,6 hPa 0,0 l/m 0 min 0 min 168 W/m 9,0 km/h (2 Bft) 100,00 %
11.06.2018 14:30 23,8 C 24,4 C 22,2 C 61 % 1009,5 hPa 0,0 l/m 0 min 0 min 166 W/m 11,3 km/h (2 Bft) 100,00 %
11.06.2018 14:32 23,8 C 25,0 C 22,2 C 61 % 1009,5 hPa 0,0 l/m 0 min 0 min 163 W/m 9,0 km/h (2 Bft) 100,00 %
11.06.2018 14:34 23,9 C 25,0 C 22,2 C 61 % 1009,3 hPa 0,0 l/m 0 min 0 min 176 W/m 13,5 km/h (3 Bft) 100,00 %
11.06.2018 14:36 23,9 C 24,4 C 22,2 C 60 % 1009,3 hPa 0,0 l/m 0 min 0 min 168 W/m 15,8 km/h (3 Bft) 100,00 %
11.06.2018 14:38 23,9 C 24,4 C 22,2 C 60 % 1009,3 hPa 0,0 l/m 0 min 0 min 175 W/m 11,3 km/h (2 Bft) 100,00 %
11.06.2018 14:40 24,0 C 25,0 C 22,2 C 61 % 1009,3 hPa 0,0 l/m 0 min 0 min 179 W/m 9,0 km/h (2 Bft) 100,00 %
11.06.2018 14:42 24,0 C 25,0 C 22,2 C 61 % 1009,3 hPa 0,0 l/m 0 min 0 min 183 W/m 9,0 km/h (2 Bft) 100,00 %
11.06.2018 14:44 24,1 C 25,0 C 22,2 C 61 % 1009,2 hPa 0,0 l/m 0 min 0 min 183 W/m 9,0 km/h (2 Bft) 100,00 %
11.06.2018 14:46 24,1 C 25,0 C 22,2 C 61 % 1009,2 hPa 0,0 l/m 0 min 0 min 182 W/m 9,0 km/h (2 Bft) 100,00 %
11.06.2018 14:48 24,1 C 25,0 C 22,2 C 61 % 1009,2 hPa 0,0 l/m 0 min 0 min 183 W/m 11,3 km/h (2 Bft) 100,00 %
11.06.2018 14:50 24,2 C 25,0 C 22,2 C 60 % 1009,1 hPa 0,0 l/m 0 min 0 min 198 W/m 15,8 km/h (3 Bft) 100,00 %
11.06.2018 14:52 24,2 C 25,0 C 22,2 C 60 % 1009,0 hPa 0,0 l/m 0 min 0 min 237 W/m 6,8 km/h (2 Bft) 100,00 %
11.06.2018 14:54 24,2 C 25,0 C 22,8 C 61 % 1008,9 hPa 0,0 l/m 0 min 0 min 236 W/m 9,0 km/h (2 Bft) 100,00 %
11.06.2018 14:56 24,2 C 25,0 C 22,8 C 60 % 1008,9 hPa 0,0 l/m 0 min 0 min 278 W/m 11,3 km/h (2 Bft) 100,00 %
11.06.2018 14:58 24,3 C 25,0 C 22,8 C 59 % 1008,8 hPa 0,0 l/m 0 min 0 min 351 W/m 13,5 km/h (3 Bft) 100,00 %
11.06.2018 15:00 24,3 C 24,4 C 22,2 C 59 % 1008,7 hPa 0,0 l/m 0 min 0 min 378 W/m 11,3 km/h (2 Bft) 100,00 %
11.06.2018 15:02 24,3 C 24,4 C 22,2 C 59 % 1008,8 hPa 0,0 l/m 0 min 0 min 389 W/m 15,8 km/h (3 Bft) 97,87 %
11.06.2018 15:04 24,2 C 24,4 C 22,2 C 60 % 1008,7 hPa 0,0 l/m 0 min 0 min 384 W/m 18,0 km/h (3 Bft) 100,00 %
11.06.2018 15:06 24,2 C 24,4 C 22,2 C 59 % 1008,7 hPa 0,0 l/m 2 min 0 min 503 W/m 11,3 km/h (2 Bft) 100,00 %
11.06.2018 15:08 24,2 C 23,9 C 22,2 C 59 % 1008,6 hPa 0,0 l/m 2 min 0 min 445 W/m 11,3 km/h (2 Bft) 100,00 %
11.06.2018 15:10 24,1 C 23,9 C 22,2 C 59 % 1008,7 hPa 0,0 l/m 2 min 0 min 412 W/m 13,5 km/h (3 Bft) 100,00 %
11.06.2018 15:12 24,1 C 24,4 C 22,2 C 60 % 1008,6 hPa 0,0 l/m 2 min 0 min 414 W/m 13,5 km/h (3 Bft) 100,00 %
11.06.2018 15:14 24,1 C 24,4 C 21,7 C 59 % 1008,6 hPa 0,0 l/m 0 min 0 min 379 W/m 13,5 km/h (3 Bft) 100,00 %
11.06.2018 15:16 24,0 C 23,9 C 21,7 C 60 % 1008,6 hPa 0,0 l/m 0 min 0 min 330 W/m 15,8 km/h (3 Bft) 97,87 %
11.06.2018 15:18 24,0 C 23,9 C 22,2 C 59 % 1008,6 hPa 0,0 l/m 0 min 0 min 339 W/m 11,3 km/h (2 Bft) 100,00 %
11.06.2018 15:20 23,9 C 23,9 C 22,2 C 60 % 1008,6 hPa 0,0 l/m 0 min 0 min 363 W/m 13,5 km/h (3 Bft) 100,00 %
11.06.2018 15:22 23,9 C 24,4 C 22,2 C 61 % 1008,8 hPa 0,0 l/m 2 min 0 min 557 W/m 9,0 km/h (2 Bft) 100,00 %
11.06.2018 15:24 23,9 C 24,4 C 22,2 C 60 % 1008,8 hPa 0,0 l/m 2 min 0 min 522 W/m 18,0 km/h (3 Bft) 97,87 %
11.06.2018 15:26 23,9 C 24,4 C 22,2 C 60 % 1008,7 hPa 0,0 l/m 2 min 0 min 524 W/m 20,3 km/h (4 Bft) 100,00 %
11.06.2018 15:28 23,9 C 25,0 C 22,2 C 60 % 1008,7 hPa 0,0 l/m 2 min 0 min 540 W/m 9,0 km/h (2 Bft) 97,87 %
11.06.2018 15:30 23,9 C 25,0 C 22,2 C 60 % 1008,6 hPa 0,0 l/m 2 min 0 min 566 W/m 9,0 km/h (2 Bft) 97,87 %
11.06.2018 15:32 23,9 C 25,0 C 22,2 C 61 % 1008,6 hPa 0,0 l/m 2 min 0 min 571 W/m 9,0 km/h (2 Bft) 95,74 %
11.06.2018 15:34 23,9 C 25,0 C 22,2 C 60 % 1008,7 hPa 0,0 l/m 2 min 0 min 547 W/m 13,5 km/h (3 Bft) 95,74 %
11.06.2018 15:36 23,9 C 25,0 C 22,2 C 59 % 1008,6 hPa 0,0 l/m 2 min 0 min 516 W/m 15,8 km/h (3 Bft) 95,74 %
11.06.2018 15:38 24,0 C 25,0 C 22,2 C 60 % 1008,6 hPa 0,0 l/m 2 min 0 min 554 W/m 18,0 km/h (3 Bft) 97,87 %
11.06.2018 15:40 24,0 C 25,0 C 22,2 C 60 % 1008,5 hPa 0,0 l/m 2 min 0 min 546 W/m 11,3 km/h (2 Bft) 95,74 %
11.06.2018 15:42 24,0 C 25,0 C 22,2 C 59 % 1008,6 hPa 0,0 l/m 2 min 0 min 490 W/m 11,3 km/h (2 Bft) 95,65 %
11.06.2018 15:44 23,9 C 25,0 C 22,2 C 58 % 1008,5 hPa 0,0 l/m 2 min 0 min 466 W/m 13,5 km/h (3 Bft) 95,74 %
11.06.2018 15:46 23,9 C 25,0 C 22,2 C 59 % 1008,6 hPa 0,0 l/m 2 min 0 min 462 W/m 11,3 km/h (2 Bft) 95,74 %
11.06.2018 15:48 23,9 C 24,4 C 22,2 C 59 % 1008,6 hPa 0,0 l/m 2 min 0 min 433 W/m 15,8 km/h (3 Bft) 97,87 %
11.06.2018 15:50 23,9 C 24,4 C 22,2 C 59 % 1008,5 hPa 0,0 l/m 2 min 0 min 401 W/m 22,5 km/h (4 Bft) 97,87 %
11.06.2018 15:52 23,9 C 24,4 C 22,2 C 59 % 1008,5 hPa 0,0 l/m 2 min 0 min 415 W/m 11,3 km/h (2 Bft) 93,62 %
11.06.2018 15:54 23,9 C 25,0 C 22,2 C 60 % 1008,5 hPa 0,0 l/m 2 min 0 min 424 W/m 6,8 km/h (2 Bft) 93,62 %
11.06.2018 15:56 23,9 C 25,0 C 22,2 C 60 % 1008,5 hPa 0,0 l/m 2 min 0 min 454 W/m 15,8 km/h (3 Bft) 91,49 %
11.06.2018 15:58 23,9 C 25,0 C 22,2 C 59 % 1008,5 hPa 0,0 l/m 2 min 0 min 446 W/m 11,3 km/h (2 Bft) 93,62 %
11.06.2018 16:00 23,9 C 25,6 C 22,2 C 60 % 1008,5 hPa 0,0 l/m 2 min 0 min 482 W/m 11,3 km/h (2 Bft) 93,48 %
11.06.2018 16:02 23,9 C 25,6 C 22,2 C 59 % 1008,5 hPa 0,0 l/m 2 min 0 min 501 W/m 15,8 km/h (3 Bft) 91,49 %
11.06.2018 16:04 23,9 C 25,6 C 22,2 C 58 % 1008,6 hPa 0,0 l/m 2 min 0 min 524 W/m 15,8 km/h (3 Bft) 93,62 %
11.06.2018 16:06 23,9 C 25,6 C 22,2 C 58 % 1008,6 hPa 0,0 l/m 2 min 0 min 530 W/m 18,0 km/h (3 Bft) 93,62 %
11.06.2018 16:08 23,9 C 25,6 C 22,2 C 58 % 1008,5 hPa 0,0 l/m 2 min 0 min 553 W/m 13,5 km/h (3 Bft) 93,62 %
11.06.2018 16:10 23,9 C 25,6 C 22,2 C 58 % 1008,5 hPa 0,0 l/m 2 min 0 min 530 W/m 20,3 km/h (4 Bft) 91,30 %
11.06.2018 16:12 23,9 C 26,1 C 22,2 C 58 % 1008,5 hPa 0,0 l/m 2 min 0 min 548 W/m 9,0 km/h (2 Bft) 87,23 %
11.06.2018 16:14 24,0 C 26,1 C 22,2 C 59 % 1008,5 hPa 0,0 l/m 2 min 0 min 621 W/m 6,8 km/h (2 Bft) 93,62 %
11.06.2018 16:16 24,1 C 27,2 C 22,8 C 60 % 1008,5 hPa 0,0 l/m 2 min 0 min 691 W/m 9,0 km/h (2 Bft) 91,49 %
11.06.2018 16:18 24,2 C 27,2 C 22,8 C 60 % 1008,5 hPa 0,0 l/m 2 min 0 min 714 W/m 9,0 km/h (2 Bft) 93,62 %
11.06.2018 16:20 24,2 C 27,2 C 22,8 C 60 % 1008,5 hPa 0,0 l/m 2 min 0 min 674 W/m 13,5 km/h (3 Bft) 95,74 %
11.06.2018 16:22 24,3 C 27,2 C 22,8 C 59 % 1008,4 hPa 0,0 l/m 2 min 0 min 612 W/m 11,3 km/h (2 Bft) 93,62 %
11.06.2018 16:24 24,3 C 27,2 C 22,8 C 59 % 1008,5 hPa 0,0 l/m 2 min 0 min 561 W/m 9,0 km/h (2 Bft) 95,65 %
11.06.2018 16:26 24,4 C 26,1 C 22,8 C 58 % 1008,4 hPa 0,0 l/m 2 min 0 min 515 W/m 15,8 km/h (3 Bft) 93,62 %
11.06.2018 16:28 24,4 C 26,1 C 22,2 C 57 % 1008,5 hPa 0,0 l/m 2 min 0 min 470 W/m 13,5 km/h (3 Bft) 93,62 %
11.06.2018 16:30 24,4 C 25,6 C 22,2 C 57 % 1008,5 hPa 0,0 l/m 2 min 0 min 419 W/m 15,8 km/h (3 Bft) 95,74 %
11.06.2018 16:32 24,4 C 25,0 C 22,2 C 56 % 1008,5 hPa 0,0 l/m 2 min 0 min 366 W/m 13,5 km/h (3 Bft) 89,36 %
11.06.2018 16:34 24,4 C 25,0 C 22,2 C 57 % 1008,5 hPa 0,0 l/m 2 min 0 min 364 W/m 6,8 km/h (2 Bft) 95,65 %
11.06.2018 16:36 24,4 C 25,0 C 22,2 C 56 % 1008,5 hPa 0,0 l/m 2 min 0 min 364 W/m 6,8 km/h (2 Bft) 97,87 %
11.06.2018 16:38 24,3 C 25,0 C 22,2 C 57 % 1008,5 hPa 0,0 l/m 2 min 0 min 345 W/m 13,5 km/h (3 Bft) 97,87 %
11.06.2018 16:40 24,3 C 24,4 C 22,2 C 56 % 1008,5 hPa 0,0 l/m 0 min 0 min 312 W/m 11,3 km/h (2 Bft) 97,87 %
11.06.2018 16:42 24,3 C 24,4 C 22,2 C 57 % 1008,5 hPa 0,0 l/m 0 min 0 min 293 W/m 6,8 km/h (2 Bft) 93,62 %
11.06.2018 16:44 24,3 C 23,9 C 22,2 C 57 % 1008,6 hPa 0,0 l/m 0 min 0 min 278 W/m 11,3 km/h (2 Bft) 97,87 %
11.06.2018 16:46 24,2 C 23,9 C 21,7 C 57 % 1008,5 hPa 0,0 l/m 0 min 0 min 264 W/m 9,0 km/h (2 Bft) 97,83 %
11.06.2018 16:48 24,2 C 23,9 C 21,7 C 58 % 1008,5 hPa 0,0 l/m 0 min 0 min 256 W/m 6,8 km/h (2 Bft) 100,00 %
11.06.2018 16:50 24,1 C 23,9 C 21,7 C 58 % 1008,5 hPa 0,0 l/m 0 min 0 min 252 W/m 9,0 km/h (2 Bft) 97,87 %
11.06.2018 16:52 24,1 C 23,9 C 21,7 C 58 % 1008,5 hPa 0,0 l/m 0 min 0 min 246 W/m 11,3 km/h (2 Bft) 100,00 %
11.06.2018 16:54 24,0 C 23,9 C 21,7 C 59 % 1008,4 hPa 0,0 l/m 0 min 0 min 237 W/m 6,8 km/h (2 Bft) 95,74 %
11.06.2018 16:56 23,9 C 23,9 C 21,7 C 59 % 1008,4 hPa 0,0 l/m 0 min 0 min 227 W/m 6,8 km/h (2 Bft) 100,00 %
11.06.2018 16:58 23,9 C 23,3 C 21,7 C 59 % 1008,5 hPa 0,0 l/m 0 min 0 min 220 W/m 9,0 km/h (2 Bft) 100,00 %
11.06.2018 17:00 23,8 C 23,3 C 21,7 C 59 % 1008,5 hPa 0,0 l/m 0 min 0 min 213 W/m 6,8 km/h (2 Bft) 100,00 %
11.06.2018 17:02 23,8 C 23,3 C 21,7 C 58 % 1008,5 hPa 0,0 l/m 0 min 0 min 206 W/m 13,5 km/h (3 Bft) 100,00 %
11.06.2018 17:04 23,7 C 23,3 C 21,7 C 58 % 1008,5 hPa 0,0 l/m 0 min 0 min 200 W/m 15,8 km/h (3 Bft) 100,00 %
11.06.2018 17:06 23,7 C 23,3 C 21,7 C 58 % 1008,4 hPa 0,0 l/m 0 min 0 min 193 W/m 9,0 km/h (2 Bft) 100,00 %
11.06.2018 17:08 23,6 C 23,3 C 21,7 C 59 % 1008,4 hPa 0,0 l/m 0 min 0 min 188 W/m 6,8 km/h (2 Bft) 100,00 %
11.06.2018 17:10 23,6 C 23,3 C 21,7 C 60 % 1008,4 hPa 0,0 l/m 0 min 0 min 184 W/m 9,0 km/h (2 Bft) 100,00 %
11.06.2018 17:12 23,5 C 23,3 C 21,7 C 59 % 1008,4 hPa 0,0 l/m 0 min 0 min 181 W/m 6,8 km/h (2 Bft) 100,00 %
11.06.2018 17:14 23,4 C 23,3 C 21,1 C 59 % 1008,4 hPa 0,0 l/m 0 min 0 min 177 W/m 9,0 km/h (2 Bft) 97,83 %
11.06.2018 17:16 23,4 C 22,8 C 21,1 C 57 % 1008,4 hPa 0,0 l/m 0 min 0 min 175 W/m 15,8 km/h (3 Bft) 100,00 %
11.06.2018 17:18 23,3 C 22,8 C 21,1 C 57 % 1008,4 hPa 0,0 l/m 0 min 0 min 172 W/m 9,0 km/h (2 Bft) 100,00 %
11.06.2018 17:20 23,3 C 22,8 C 21,1 C 58 % 1008,3 hPa 0,0 l/m 0 min 0 min 170 W/m 9,0 km/h (2 Bft) 95,74 %
11.06.2018 17:22 23,2 C 22,8 C 21,1 C 58 % 1008,3 hPa 0,0 l/m 0 min 0 min 168 W/m 11,3 km/h (2 Bft) 100,00 %
11.06.2018 17:24 23,2 C 22,8 C 21,1 C 58 % 1008,4 hPa 0,0 l/m 0 min 0 min 165 W/m 9,0 km/h (2 Bft) 100,00 %
11.06.2018 17:26 23,1 C 22,8 C 21,1 C 59 % 1008,3 hPa 0,0 l/m 0 min 0 min 163 W/m 9,0 km/h (2 Bft) 100,00 %
11.06.2018 17:28 23,1 C 22,8 C 21,1 C 59 % 1008,3 hPa 0,0 l/m 0 min 0 min 159 W/m 9,0 km/h (2 Bft) 100,00 %
11.06.2018 17:30 23,0 C 22,8 C 20,6 C 59 % 1008,3 hPa 0,0 l/m 0 min 0 min 154 W/m 6,8 km/h (2 Bft) 100,00 %
11.06.2018 17:32 23,0 C 22,8 C 20,6 C 59 % 1008,3 hPa 0,0 l/m 0 min 0 min 149 W/m 6,8 km/h (2 Bft) 100,00 %
11.06.2018 17:34 22,9 C 22,8 C 20,6 C 61 % 1008,2 hPa 0,0 l/m 0 min 0 min 145 W/m 6,8 km/h (2 Bft) 100,00 %
11.06.2018 17:36 22,9 C 22,2 C 20,0 C 62 % 1008,3 hPa 0,0 l/m 0 min 0 min 141 W/m 6,8 km/h (2 Bft) 100,00 %
11.06.2018 17:38 22,9 C 22,2 C 20,0 C 61 % 1008,2 hPa 0,0 l/m 0 min 0 min 136 W/m 4,5 km/h (1 Bft) 100,00 %
11.06.2018 17:40 22,8 C 22,2 C 20,0 C 60 % 1008,2 hPa 0,0 l/m 0 min 0 min 132 W/m 6,8 km/h (2 Bft) 100,00 %
11.06.2018 17:42 22,8 C 22,2 C 20,0 C 61 % 1008,3 hPa 0,0 l/m 0 min 0 min 129 W/m 4,5 km/h (1 Bft) 100,00 %
11.06.2018 17:44 22,7 C 22,2 C 20,0 C 61 % 1008,2 hPa 0,0 l/m 0 min 0 min 128 W/m 4,5 km/h (1 Bft) 100,00 %
11.06.2018 17:46 22,7 C 22,2 C 20,0 C 62 % 1008,2 hPa 0,0 l/m 0 min 0 min 127 W/m 4,5 km/h (1 Bft) 97,87 %
11.06.2018 17:48 22,6 C 22,2 C 20,0 C 63 % 1008,2 hPa 0,0 l/m 0 min 0 min 126 W/m 6,8 km/h (2 Bft) 97,83 %
11.06.2018 17:50 22,6 C 22,2 C 20,0 C 62 % 1008,1 hPa 0,0 l/m 0 min 0 min 123 W/m 4,5 km/h (1 Bft) 100,00 %
11.06.2018 17:52 22,5 C 22,2 C 20,0 C 62 % 1008,1 hPa 0,0 l/m 0 min 0 min 121 W/m 4,5 km/h (1 Bft) 100,00 %
11.06.2018 17:54 22,4 C 22,2 C 20,0 C 63 % 1008,1 hPa 0,0 l/m 0 min 0 min 119 W/m 4,5 km/h (1 Bft) 100,00 %
11.06.2018 17:56 22,4 C 22,2 C 20,0 C 64 % 1008,1 hPa 0,0 l/m 0 min 0 min 117 W/m 6,8 km/h (2 Bft) 97,87 %
11.06.2018 17:58 22,4 C 21,7 C 20,0 C 64 % 1008,1 hPa 0,0 l/m 0 min 0 min 115 W/m 6,8 km/h (2 Bft) 100,00 %
11.06.2018 18:00 22,3 C 21,7 C 20,0 C 64 % 1008,1 hPa 0,0 l/m 0 min 0 min 113 W/m 6,8 km/h (2 Bft) 100,00 %
11.06.2018 18:02 22,3 C 21,7 C 20,0 C 64 % 1008,1 hPa 0,0 l/m 0 min 0 min 111 W/m 4,5 km/h (1 Bft) 97,87 %
11.06.2018 18:04 22,3 C 21,7 C 20,0 C 64 % 1008,1 hPa 0,0 l/m 0 min 0 min 108 W/m 4,5 km/h (1 Bft) 100,00 %
11.06.2018 18:08 22,2 C 21,7 C 20,0 C 65 % 1008,1 hPa 0,0 l/m 0 min 0 min 102 W/m 4,5 km/h (1 Bft) 100,00 %
11.06.2018 18:10 22,2 C 21,7 C 20,0 C 65 % 1008,1 hPa 0,0 l/m 0 min 0 min 97 W/m 2,3 km/h (1 Bft) 100,00 %
11.06.2018 18:12 22,2 C 21,7 C 20,0 C 66 % 1008,0 hPa 0,0 l/m 0 min 0 min 96 W/m 6,8 km/h (2 Bft) 100,00 %
11.06.2018 18:14 22,1 C 21,7 C 20,0 C 65 % 1008,0 hPa 0,0 l/m 0 min 0 min 93 W/m 6,8 km/h (2 Bft) 100,00 %
11.06.2018 18:16 22,1 C 21,7 C 20,0 C 65 % 1008,1 hPa 0,0 l/m 0 min 0 min 92 W/m 4,5 km/h (1 Bft) 100,00 %
11.06.2018 18:18 22,1 C 21,7 C 20,0 C 65 % 1008,1 hPa 0,0 l/m 0 min 0 min 90 W/m 6,8 km/h (2 Bft) 100,00 %
11.06.2018 18:20 22,0 C 21,7 C 20,0 C 65 % 1008,1 hPa 0,0 l/m 0 min 0 min 89 W/m 4,5 km/h (1 Bft) 100,00 %
11.06.2018 18:22 22,0 C 21,7 C 20,0 C 65 % 1008,1 hPa 0,0 l/m 0 min 0 min 87 W/m 4,5 km/h (1 Bft) 100,00 %
11.06.2018 18:24 21,9 C 21,7 C 20,0 C 65 % 1008,1 hPa 0,0 l/m 0 min 0 min 85 W/m 4,5 km/h (1 Bft) 100,00 %
11.06.2018 18:26 21,9 C 21,7 C 20,0 C 66 % 1008,1 hPa 0,0 l/m 0 min 0 min 84 W/m 4,5 km/h (1 Bft) 100,00 %
11.06.2018 18:28 21,9 C 21,7 C 20,0 C 66 % 1008,1 hPa 0,0 l/m 0 min 0 min 82 W/m 2,3 km/h (1 Bft) 100,00 %
11.06.2018 18:30 21,9 C 21,1 C 20,0 C 66 % 1008,2 hPa 0,0 l/m 0 min 0 min 81 W/m 6,8 km/h (2 Bft) 95,74 %
11.06.2018 18:32 21,9 C 21,1 C 20,0 C 66 % 1008,1 hPa 0,0 l/m 0 min 0 min 79 W/m 6,8 km/h (2 Bft) 93,75 %
11.06.2018 18:34 21,8 C 21,1 C 20,0 C 66 % 1008,2 hPa 0,0 l/m 0 min 0 min 78 W/m 6,8 km/h (2 Bft) 97,87 %
11.06.2018 18:36 21,8 C 21,1 C 20,0 C 65 % 1008,1 hPa 0,0 l/m 0 min 0 min 77 W/m 4,5 km/h (1 Bft) 97,87 %
11.06.2018 18:38 21,8 C 21,1 C 20,0 C 65 % 1008,1 hPa 0,0 l/m 0 min 0 min 77 W/m 6,8 km/h (2 Bft) 97,87 %
11.06.2018 18:40 21,7 C 21,1 C 20,0 C 65 % 1008,1 hPa 0,0 l/m 0 min 0 min 78 W/m 6,8 km/h (2 Bft) 95,74 %
11.06.2018 18:42 21,7 C 21,1 C 20,0 C 64 % 1008,1 hPa 0,0 l/m 0 min 0 min 77 W/m 6,8 km/h (2 Bft) 95,74 %
11.06.2018 18:44 21,7 C 21,1 C 20,0 C 64 % 1008,1 hPa 0,0 l/m 0 min 0 min 77 W/m 6,8 km/h (2 Bft) 95,65 %
11.06.2018 18:46 21,7 C 21,1 C 20,0 C 65 % 1008,1 hPa 0,0 l/m 0 min 0 min 76 W/m 6,8 km/h (2 Bft) 91,49 %
11.06.2018 18:48 21,7 C 21,1 C 20,0 C 65 % 1008,1 hPa 0,0 l/m 0 min 0 min 74 W/m 4,5 km/h (1 Bft) 93,62 %
11.06.2018 18:50 21,7 C 21,1 C 20,0 C 66 % 1008,1 hPa 0,0 l/m 0 min 0 min 72 W/m 9,0 km/h (2 Bft) 95,74 %
11.06.2018 18:52 21,6 C 21,1 C 20,0 C 65 % 1008,1 hPa 0,0 l/m 0 min 0 min 72 W/m 6,8 km/h (2 Bft) 93,62 %
11.06.2018 18:54 21,6 C 21,1 C 20,0 C 65 % 1008,2 hPa 0,0 l/m 0 min 0 min 73 W/m 6,8 km/h (2 Bft) 95,74 %
11.06.2018 18:56 21,6 C 21,1 C 20,0 C 65 % 1008,2 hPa 0,0 l/m 0 min 0 min 74 W/m 6,8 km/h (2 Bft) 93,48 %
11.06.2018 18:58 21,6 C 21,1 C 20,0 C 65 % 1008,2 hPa 0,0 l/m 0 min 0 min 74 W/m 6,8 km/h (2 Bft) 93,62 %
11.06.2018 19:00 21,6 C 21,1 C 20,0 C 65 % 1008,2 hPa 0,0 l/m 0 min 0 min 74 W/m 6,8 km/h (2 Bft) 93,62 %
11.06.2018 19:02 21,6 C 21,1 C 20,0 C 65 % 1008,2 hPa 0,0 l/m 0 min 0 min 73 W/m 4,5 km/h (1 Bft) 93,62 %
11.06.2018 19:04 21,5 C 21,1 C 20,0 C 65 % 1008,3 hPa 0,0 l/m 0 min 0 min 72 W/m 9,0 km/h (2 Bft) 91,49 %
11.06.2018 19:06 21,5 C 21,1 C 20,0 C 65 % 1008,2 hPa 0,0 l/m 0 min 0 min 72 W/m 9,0 km/h (2 Bft) 93,48 %
11.06.2018 19:08 21,5 C 21,1 C 20,0 C 64 % 1008,2 hPa 0,0 l/m 0 min 0 min 70 W/m 11,3 km/h (2 Bft) 91,49 %
11.06.2018 19:10 21,5 C 21,1 C 20,0 C 65 % 1008,2 hPa 0,0 l/m 0 min 0 min 69 W/m 6,8 km/h (2 Bft) 93,62 %
11.06.2018 19:12 21,5 C 21,1 C 20,6 C 64 % 1008,3 hPa 0,0 l/m 0 min 0 min 68 W/m 9,0 km/h (2 Bft) 91,49 %
11.06.2018 19:14 21,5 C 21,1 C 20,6 C 64 % 1008,3 hPa 0,0 l/m 0 min 0 min 64 W/m 6,8 km/h (2 Bft) 93,62 %
11.06.2018 19:16 21,5 C 21,1 C 20,0 C 65 % 1008,3 hPa 0,0 l/m 0 min 0 min 62 W/m 9,0 km/h (2 Bft) 95,74 %
11.06.2018 19:18 21,5 C 21,1 C 20,0 C 65 % 1008,4 hPa 0,0 l/m 0 min 0 min 59 W/m 11,3 km/h (2 Bft) 95,65 %
11.06.2018 19:20 21,5 C 21,1 C 20,0 C 64 % 1008,4 hPa 0,0 l/m 0 min 0 min 56 W/m 11,3 km/h (2 Bft) 95,74 %
11.06.2018 19:22 21,5 C 21,1 C 20,0 C 65 % 1008,4 hPa 0,0 l/m 0 min 0 min 54 W/m 11,3 km/h (2 Bft) 93,62 %
11.06.2018 19:24 21,5 C 21,1 C 20,0 C 65 % 1008,4 hPa 0,0 l/m 0 min 2 min 54 W/m 6,8 km/h (2 Bft) 95,74 %
11.06.2018 19:26 21,5 C 21,1 C 20,0 C 65 % 1008,4 hPa 0,0 l/m 0 min 0 min 54 W/m 6,8 km/h (2 Bft) 95,74 %
11.06.2018 19:28 21,5 C 21,1 C 20,0 C 65 % 1008,5 hPa 0,0 l/m 0 min 0 min 54 W/m 9,0 km/h (2 Bft) 93,62 %
11.06.2018 19:30 21,5 C 21,1 C 20,0 C 65 % 1008,5 hPa 0,0 l/m 0 min 0 min 56 W/m 4,5 km/h (1 Bft) 95,65 %
11.06.2018 19:32 21,5 C 21,1 C 20,0 C 65 % 1008,4 hPa 0,0 l/m 0 min 0 min 56 W/m 11,3 km/h (2 Bft) 95,74 %
11.06.2018 19:34 21,5 C 21,1 C 20,0 C 65 % 1008,4 hPa 0,0 l/m 0 min 0 min 55 W/m 11,3 km/h (2 Bft) 95,74 %
11.06.2018 19:36 21,5 C 21,1 C 20,0 C 65 % 1008,4 hPa 0,0 l/m 0 min 2 min 54 W/m 9,0 km/h (2 Bft) 95,74 %
11.06.2018 19:38 21,4 C 21,1 C 20,0 C 64 % 1008,4 hPa 0,0 l/m 0 min 0 min 54 W/m 6,8 km/h (2 Bft) 95,74 %
11.06.2018 19:40 21,4 C 21,1 C 20,0 C 64 % 1008,4 hPa 0,0 l/m 0 min 0 min 54 W/m 11,3 km/h (2 Bft) 97,87 %
11.06.2018 19:42 21,4 C 21,1 C 20,0 C 64 % 1008,4 hPa 0,0 l/m 0 min 0 min 53 W/m 6,8 km/h (2 Bft) 97,83 %
11.06.2018 19:44 21,4 C 21,1 C 20,0 C 64 % 1008,4 hPa 0,0 l/m 0 min 0 min 54 W/m 6,8 km/h (2 Bft) 95,74 %
11.06.2018 19:46 21,4 C 21,1 C 20,0 C 64 % 1008,4 hPa 0,0 l/m 0 min 0 min 54 W/m 6,8 km/h (2 Bft) 95,74 %
11.06.2018 19:48 21,4 C 21,1 C 20,0 C 64 % 1008,4 hPa 0,0 l/m 0 min 0 min 54 W/m 4,5 km/h (1 Bft) 97,87 %
11.06.2018 19:50 21,4 C 21,1 C 20,0 C 64 % 1008,4 hPa 0,0 l/m 0 min 0 min 54 W/m 9,0 km/h (2 Bft) 100,00 %
11.06.2018 19:52 21,4 C 21,1 C 20,0 C 65 % 1008,4 hPa 0,0 l/m 0 min 0 min 54 W/m 6,8 km/h (2 Bft) 100,00 %
11.06.2018 19:54 21,4 C 21,1 C 20,0 C 64 % 1008,4 hPa 0,0 l/m 0 min 0 min 53 W/m 6,8 km/h (2 Bft) 100,00 %
11.06.2018 19:56 21,4 C 21,1 C 20,0 C 65 % 1008,3 hPa 0,0 l/m 0 min 0 min 52 W/m 9,0 km/h (2 Bft) 97,87 %
11.06.2018 19:58 21,4 C 21,1 C 20,0 C 65 % 1008,3 hPa 0,0 l/m 0 min 0 min 48 W/m 9,0 km/h (2 Bft) 100,00 %
11.06.2018 20:00 21,3 C 21,1 C 20,0 C 65 % 1008,3 hPa 0,0 l/m 0 min 0 min 45 W/m 6,8 km/h (2 Bft) 100,00 %
11.06.2018 20:02 21,3 C 20,6 C 20,0 C 65 % 1008,3 hPa 0,0 l/m 0 min 0 min 41 W/m 6,8 km/h (2 Bft) 95,74 %
11.06.2018 20:04 21,3 C 20,6 C 20,0 C 65 % 1008,3 hPa 0,0 l/m 0 min 0 min 38 W/m 6,8 km/h (2 Bft) 100,00 %
11.06.2018 20:06 21,3 C 20,6 C 20,0 C 65 % 1008,3 hPa 0,0 l/m 0 min 0 min 35 W/m 9,0 km/h (2 Bft) 100,00 %
11.06.2018 20:08 21,3 C 20,6 C 20,0 C 65 % 1008,3 hPa 0,0 l/m 0 min 0 min 33 W/m 13,5 km/h (3 Bft) 100,00 %
11.06.2018 20:10 21,3 C 20,6 C 20,0 C 65 % 1008,3 hPa 0,0 l/m 0 min 0 min 31 W/m 11,3 km/h (2 Bft) 100,00 %
11.06.2018 20:12 21,3 C 20,6 C 20,0 C 65 % 1008,3 hPa 0,0 l/m 0 min 0 min 29 W/m 6,8 km/h (2 Bft) 100,00 %
11.06.2018 20:14 21,3 C 20,6 C 20,0 C 65 % 1008,3 hPa 0,0 l/m 0 min 0 min 28 W/m 9,0 km/h (2 Bft) 100,00 %
11.06.2018 20:16 21,2 C 20,6 C 20,0 C 65 % 1008,2 hPa 0,0 l/m 0 min 0 min 26 W/m 4,5 km/h (1 Bft) 100,00 %
11.06.2018 20:18 21,2 C 20,6 C 20,0 C 65 % 1008,3 hPa 0,0 l/m 0 min 0 min 25 W/m 11,3 km/h (2 Bft) 100,00 %
11.06.2018 20:20 21,2 C 20,6 C 20,0 C 65 % 1008,3 hPa 0,0 l/m 0 min 0 min 25 W/m 11,3 km/h (2 Bft) 100,00 %
11.06.2018 20:22 21,2 C 20,6 C 20,0 C 66 % 1008,3 hPa 0,0 l/m 0 min 0 min 23 W/m 9,0 km/h (2 Bft) 100,00 %
11.06.2018 20:24 21,2 C 20,6 C 20,0 C 66 % 1008,3 hPa 0,0 l/m 0 min 0 min 23 W/m 6,8 km/h (2 Bft) 100,00 %
11.06.2018 20:26 21,1 C 20,6 C 20,0 C 66 % 1008,2 hPa 0,0 l/m 0 min 0 min 23 W/m 13,5 km/h (3 Bft) 100,00 %
11.06.2018 20:28 21,1 C 20,6 C 20,0 C 65 % 1008,2 hPa 0,0 l/m 0 min 0 min 24 W/m 15,8 km/h (3 Bft) 100,00 %
11.06.2018 20:30 21,1 C 20,6 C 19,4 C 66 % 1008,2 hPa 0,0 l/m 0 min 0 min 25 W/m 9,0 km/h (2 Bft) 100,00 %
11.06.2018 20:32 21,1 C 20,6 C 19,4 C 65 % 1008,3 hPa 0,0 l/m 0 min 0 min 26 W/m 9,0 km/h (2 Bft) 100,00 %
11.06.2018 20:34 21,1 C 20,6 C 19,4 C 65 % 1008,3 hPa 0,0 l/m 0 min 0 min 26 W/m 6,8 km/h (2 Bft) 100,00 %
11.06.2018 20:36 21,0 C 20,6 C 19,4 C 65 % 1008,3 hPa 0,0 l/m 0 min 0 min 26 W/m 6,8 km/h (2 Bft) 100,00 %
11.06.2018 20:38 21,0 C 20,6 C 19,4 C 65 % 1008,2 hPa 0,0 l/m 0 min 0 min 28 W/m 6,8 km/h (2 Bft) 100,00 %
11.06.2018 20:40 21,0 C 20,6 C 19,4 C 65 % 1008,3 hPa 0,0 l/m 0 min 0 min 28 W/m 9,0 km/h (2 Bft) 97,83 %
11.06.2018 20:42 21,0 C 20,6 C 19,4 C 65 % 1008,3 hPa 0,0 l/m 0 min 0 min 28 W/m 4,5 km/h (1 Bft) 100,00 %
11.06.2018 20:44 21,0 C 20,6 C 19,4 C 65 % 1008,2 hPa 0,0 l/m 0 min 0 min 28 W/m 11,3 km/h (2 Bft) 100,00 %
11.06.2018 20:46 21,0 C 20,6 C 19,4 C 65 % 1008,2 hPa 0,0 l/m 0 min 0 min 28 W/m 9,0 km/h (2 Bft) 100,00 %
11.06.2018 20:48 20,9 C 20,6 C 19,4 C 65 % 1008,3 hPa 0,0 l/m 0 min 0 min 28 W/m 6,8 km/h (2 Bft) 100,00 %
11.06.2018 20:50 20,9 C 20,6 C 19,4 C 65 % 1008,3 hPa 0,0 l/m 0 min 0 min 28 W/m 9,0 km/h (2 Bft) 100,00 %
11.06.2018 20:52 20,9 C 20,0 C 19,4 C 65 % 1008,3 hPa 0,0 l/m 0 min 0 min 27 W/m 4,5 km/h (1 Bft) 100,00 %
11.06.2018 20:54 20,9 C 20,0 C 19,4 C 65 % 1008,3 hPa 0,0 l/m 0 min 0 min 26 W/m 11,3 km/h (2 Bft) 100,00 %
11.06.2018 20:56 20,9 C 20,0 C 19,4 C 65 % 1008,3 hPa 0,0 l/m 0 min 0 min 26 W/m 6,8 km/h (2 Bft) 100,00 %
11.06.2018 20:58 20,9 C 20,0 C 19,4 C 66 % 1008,3 hPa 0,0 l/m 0 min 0 min 26 W/m 4,5 km/h (1 Bft) 100,00 %
11.06.2018 21:00 20,9 C 20,0 C 19,4 C 66 % 1008,3 hPa 0,0 l/m 0 min 0 min 25 W/m 6,8 km/h (2 Bft) 100,00 %
11.06.2018 21:02 20,9 C 20,0 C 19,4 C 66 % 1008,3 hPa 0,0 l/m 0 min 0 min 23 W/m 6,8 km/h (2 Bft) 100,00 %
11.06.2018 21:04 20,9 C 20,0 C 19,4 C 66 % 1008,3 hPa 0,0 l/m 0 min 0 min 21 W/m 6,8 km/h (2 Bft) 100,00 %
11.06.2018 21:06 20,9 C 20,0 C 19,4 C 66 % 1008,3 hPa 0,0 l/m 0 min 0 min 20 W/m 6,8 km/h (2 Bft) 97,87 %
11.06.2018 21:08 20,9 C 20,0 C 19,4 C 66 % 1008,3 hPa 0,0 l/m 0 min 0 min 19 W/m 4,5 km/h (1 Bft) 97,87 %
11.06.2018 21:10 20,8 C 20,0 C 19,4 C 67 % 1008,3 hPa 0,0 l/m 0 min 0 min 17 W/m 6,8 km/h (2 Bft) 100,00 %
11.06.2018 21:12 20,8 C 20,0 C 19,4 C 67 % 1008,4 hPa 0,0 l/m 0 min 0 min 15 W/m 6,8 km/h (2 Bft) 97,87 %
11.06.2018 21:14 20,8 C 20,0 C 19,4 C 67 % 1008,4 hPa 0,0 l/m 0 min 0 min 13 W/m 2,3 km/h (1 Bft) 97,87 %
11.06.2018 21:16 20,8 C 20,0 C 19,4 C 67 % 1008,5 hPa 0,0 l/m 0 min 0 min 12 W/m 6,8 km/h (2 Bft) 97,83 %
11.06.2018 21:18 20,7 C 20,0 C 19,4 C 67 % 1008,5 hPa 0,0 l/m 0 min 0 min 11 W/m 2,3 km/h (1 Bft) 97,87 %
11.06.2018 21:20 20,7 C 20,0 C 18,9 C 68 % 1008,6 hPa 0,0 l/m 0 min 0 min 11 W/m 9,0 km/h (2 Bft) 97,87 %
11.06.2018 21:22 20,7 C 19,4 C 18,9 C 68 % 1008,7 hPa 0,0 l/m 0 min 0 min 9 W/m 9,0 km/h (2 Bft) 95,74 %
11.06.2018 21:24 20,7 C 19,4 C 18,9 C 68 % 1008,7 hPa 0,0 l/m 0 min 0 min 9 W/m 6,8 km/h (2 Bft) 97,87 %
11.06.2018 21:26 20,7 C 19,4 C 18,9 C 68 % 1008,7 hPa 0,0 l/m 0 min 0 min 9 W/m 2,3 km/h (1 Bft) 97,87 %
11.06.2018 21:28 20,7 C 19,4 C 18,9 C 68 % 1008,7 hPa 0,0 l/m 0 min 0 min 9 W/m 2,3 km/h (1 Bft) 97,83 %
11.06.2018 21:30 20,6 C 19,4 C 18,9 C 68 % 1008,7 hPa 0,0 l/m 0 min 0 min 9 W/m 2,3 km/h (1 Bft) 95,74 %
11.06.2018 21:32 20,6 C 19,4 C 18,9 C 68 % 1008,8 hPa 0,0 l/m 0 min 0 min 10 W/m 0,0 km/h (0 Bft) 97,87 %
11.06.2018 21:34 20,6 C 19,4 C 18,9 C 68 % 1008,7 hPa 0,0 l/m 0 min 0 min 9 W/m 4,5 km/h (1 Bft) 97,87 %
11.06.2018 21:36 20,6 C 19,4 C 18,9 C 68 % 1008,8 hPa 0,0 l/m 0 min 0 min 9 W/m 4,5 km/h (1 Bft) 95,74 %
11.06.2018 21:38 20,6 C 19,4 C 18,9 C 69 % 1008,8 hPa 0,0 l/m 0 min 0 min 8 W/m 0,0 km/h (0 Bft) 97,87 %
11.06.2018 21:40 20,5 C 19,4 C 18,9 C 69 % 1008,8 hPa 0,0 l/m 0 min 0 min 7 W/m 0,0 km/h (0 Bft) 95,65 %
11.06.2018 21:42 20,5 C 19,4 C 18,9 C 69 % 1008,8 hPa 0,0 l/m 0 min 0 min 7 W/m 2,3 km/h (1 Bft) 95,74 %
11.06.2018 21:44 20,4 C 19,4 C 18,9 C 69 % 1008,9 hPa 0,0 l/m 0 min 0 min 5 W/m 2,3 km/h (1 Bft) 95,74 %
11.06.2018 21:46 20,4 C 19,4 C 18,9 C 69 % 1008,9 hPa 0,0 l/m 0 min 0 min 5 W/m 2,3 km/h (1 Bft) 97,87 %
11.06.2018 21:48 20,4 C 19,4 C 18,9 C 70 % 1008,9 hPa 0,0 l/m 0 min 0 min 4 W/m 2,3 km/h (1 Bft) 97,87 %
11.06.2018 21:50 20,4 C 19,4 C 18,9 C 70 % 1008,9 hPa 0,0 l/m 0 min 0 min 0 W/m 4,5 km/h (1 Bft) 97,87 %
11.06.2018 21:52 20,3 C 19,4 C 18,9 C 70 % 1009,0 hPa 0,0 l/m 0 min 0 min 0 W/m 2,3 km/h (1 Bft) 93,48 %
11.06.2018 21:54 20,3 C 19,4 C 18,9 C 70 % 1008,9 hPa 0,0 l/m 0 min 0 min 0 W/m 2,3 km/h (1 Bft) 95,74 %
11.06.2018 21:56 20,3 C 19,4 C 18,9 C 70 % 1009,0 hPa 0,0 l/m 0 min 0 min 0 W/m 4,5 km/h (1 Bft) 97,87 %
11.06.2018 21:58 20,3 C 19,4 C 18,9 C 71 % 1009,0 hPa 0,0 l/m 0 min 0 min 0 W/m 2,3 km/h (1 Bft) 95,74 %
11.06.2018 22:00 20,2 C 19,4 C 18,9 C 71 % 1009,0 hPa 0,0 l/m 0 min 0 min 0 W/m 2,3 km/h (1 Bft) 97,87 %
11.06.2018 22:02 20,2 C 19,4 C 18,9 C 71 % 1009,0 hPa 0,0 l/m 0 min 0 min 0 W/m 4,5 km/h (1 Bft) 97,62 %
11.06.2018 22:04 20,2 C 19,4 C 18,9 C 71 % 1009,0 hPa 0,0 l/m 0 min 0 min 0 W/m 6,8 km/h (2 Bft) 95,74 %
11.06.2018 22:06 20,2 C 18,9 C 18,9 C 71 % 1009,0 hPa 0,0 l/m 0 min 0 min 0 W/m 2,3 km/h (1 Bft) 97,87 %
11.06.2018 22:08 20,1 C 19,4 C 18,9 C 71 % 1009,1 hPa 0,0 l/m 0 min 0 min 0 W/m 6,8 km/h (2 Bft) 97,87 %
11.06.2018 22:10 20,1 C 18,9 C 18,9 C 71 % 1009,1 hPa 0,0 l/m 0 min 0 min 0 W/m 4,5 km/h (1 Bft) 95,65 %
11.06.2018 22:12 20,1 C 18,9 C 18,9 C 71 % 1009,1 hPa 0,0 l/m 0 min 0 min 0 W/m 6,8 km/h (2 Bft) 95,74 %
11.06.2018 22:14 20,1 C 18,9 C 18,9 C 71 % 1009,0 hPa 0,0 l/m 0 min 0 min 0 W/m 6,8 km/h (2 Bft) 93,62 %
11.06.2018 22:16 20,1 C 18,9 C 18,9 C 71 % 1009,0 hPa 0,0 l/m 0 min 0 min 0 W/m 4,5 km/h (1 Bft) 95,74 %
11.06.2018 22:18 20,0 C 18,9 C 18,9 C 71 % 1009,0 hPa 0,0 l/m 0 min 0 min 0 W/m 11,3 km/h (2 Bft) 95,74 %
11.06.2018 22:20 20,0 C 18,9 C 18,9 C 71 % 1009,0 hPa 0,0 l/m 0 min 0 min 0 W/m 4,5 km/h (1 Bft) 95,74 %
11.06.2018 22:22 19,9 C 18,9 C 18,9 C 71 % 1009,0 hPa 0,0 l/m 0 min 0 min 0 W/m 4,5 km/h (1 Bft) 94,83 %
11.06.2018 22:24 19,9 C 18,9 C 18,9 C 71 % 1009,1 hPa 0,0 l/m 0 min 0 min 0 W/m 2,3 km/h (1 Bft) 97,14 %
11.06.2018 22:26 19,9 C 18,9 C 18,9 C 71 % 1009,1 hPa 0,0 l/m 0 min 0 min 0 W/m 2,3 km/h (1 Bft) 93,62 %
11.06.2018 22:28 19,9 C 18,9 C 18,9 C 71 % 1009,1 hPa 0,0 l/m 0 min 0 min 0 W/m 6,8 km/h (2 Bft) 95,74 %
11.06.2018 22:30 19,9 C 18,9 C 18,9 C 71 % 1009,1 hPa 0,0 l/m 0 min 0 min 0 W/m 6,8 km/h (2 Bft) 93,62 %
11.06.2018 22:32 19,9 C 18,9 C 18,3 C 71 % 1009,1 hPa 0,0 l/m 0 min 0 min 0 W/m 4,5 km/h (1 Bft) 93,62 %
11.06.2018 22:34 19,8 C 18,9 C 18,3 C 71 % 1009,1 hPa 0,0 l/m 0 min 0 min 0 W/m 6,8 km/h (2 Bft) 95,74 %
11.06.2018 22:36 19,8 C 18,9 C 18,3 C 71 % 1009,0 hPa 0,0 l/m 0 min 0 min 0 W/m 4,5 km/h (1 Bft) 95,74 %
11.06.2018 22:38 19,8 C 18,9 C 18,3 C 71 % 1009,0 hPa 0,0 l/m 0 min 0 min 0 W/m 11,3 km/h (2 Bft) 95,74 %
11.06.2018 22:40 19,8 C 18,9 C 18,9 C 71 % 1009,0 hPa 0,0 l/m 0 min 0 min 0 W/m 6,8 km/h (2 Bft) 95,74 %
11.06.2018 22:42 19,7 C 19,4 C 18,9 C 70 % 1009,1 hPa 0,0 l/m 0 min 0 min 0 W/m 15,8 km/h (3 Bft) 95,74 %
11.06.2018 22:44 19,7 C 18,9 C 18,9 C 70 % 1009,0 hPa 0,0 l/m 0 min 0 min 0 W/m 6,8 km/h (2 Bft) 97,83 %
11.06.2018 22:46 19,7 C 18,9 C 18,3 C 70 % 1009,0 hPa 0,0 l/m 0 min 0 min 0 W/m 15,8 km/h (3 Bft) 97,87 %
11.06.2018 22:48 19,7 C 19,4 C 18,9 C 70 % 1008,9 hPa 0,0 l/m 0 min 0 min 0 W/m 15,8 km/h (3 Bft) 97,87 %
11.06.2018 22:50 19,7 C 19,4 C 18,9 C 69 % 1008,9 hPa 0,0 l/m 0 min 0 min 0 W/m 9,0 km/h (2 Bft) 95,74 %
11.06.2018 22:52 19,7 C 18,9 C 18,9 C 69 % 1008,9 hPa 0,0 l/m 0 min 0 min 0 W/m 6,8 km/h (2 Bft) 95,74 %
11.06.2018 22:54 19,7 C 18,9 C 18,9 C 69 % 1009,0 hPa 0,0 l/m 0 min 0 min 0 W/m 9,0 km/h (2 Bft) 97,87 %
11.06.2018 22:56 19,7 C 18,9 C 18,3 C 69 % 1009,0 hPa 0,0 l/m 0 min 0 min 0 W/m 6,8 km/h (2 Bft) 97,83 %
11.06.2018 22:58 19,7 C 18,9 C 18,3 C 69 % 1008,9 hPa 0,0 l/m 0 min 0 min 0 W/m 6,8 km/h (2 Bft) 97,87 %
11.06.2018 23:00 19,7 C 18,9 C 18,3 C 69 % 1009,0 hPa 0,0 l/m 0 min 0 min 0 W/m 6,8 km/h (2 Bft) 97,87 %
11.06.2018 23:02 19,7 C 18,9 C 18,3 C 70 % 1009,0 hPa 0,0 l/m 0 min 0 min 0 W/m 13,5 km/h (3 Bft) 97,87 %
11.06.2018 23:04 19,7 C 18,9 C 18,3 C 70 % 1008,9 hPa 0,0 l/m 0 min 0 min 0 W/m 9,0 km/h (2 Bft) 97,87 %
11.06.2018 23:06 19,7 C 18,9 C 18,3 C 70 % 1008,9 hPa 0,0 l/m 0 min 0 min 0 W/m 11,3 km/h (2 Bft) 97,87 %
11.06.2018 23:08 19,7 C 18,9 C 18,3 C 70 % 1008,8 hPa 0,0 l/m 0 min 0 min 0 W/m 11,3 km/h (2 Bft) 97,83 %
11.06.2018 23:10 19,7 C 18,9 C 18,3 C 70 % 1008,8 hPa 0,0 l/m 0 min 0 min 0 W/m 11,3 km/h (2 Bft) 97,87 %
11.06.2018 23:12 19,7 C 18,9 C 18,3 C 70 % 1008,8 hPa 0,0 l/m 0 min 0 min 0 W/m 9,0 km/h (2 Bft) 95,74 %
11.06.2018 23:14 19,7 C 18,9 C 18,3 C 70 % 1008,7 hPa 0,0 l/m 0 min 0 min 0 W/m 6,8 km/h (2 Bft) 100,00 %
11.06.2018 23:16 19,7 C 18,9 C 18,3 C 70 % 1008,6 hPa 0,0 l/m 0 min 0 min 0 W/m 6,8 km/h (2 Bft) 100,00 %
11.06.2018 23:18 19,6 C 18,9 C 18,3 C 70 % 1008,8 hPa 0,0 l/m 0 min 0 min 0 W/m 11,3 km/h (2 Bft) 100,00 %
11.06.2018 23:20 19,6 C 18,9 C 18,3 C 70 % 1008,7 hPa 0,0 l/m 0 min 0 min 0 W/m 15,8 km/h (3 Bft) 97,83 %
11.06.2018 23:22 19,6 C 18,9 C 18,3 C 70 % 1008,8 hPa 0,0 l/m 0 min 0 min 0 W/m 9,0 km/h (2 Bft) 100,00 %
11.06.2018 23:24 19,6 C 18,9 C 18,3 C 70 % 1008,9 hPa 0,0 l/m 0 min 0 min 0 W/m 9,0 km/h (2 Bft) 100,00 %
11.06.2018 23:26 19,6 C 18,9 C 18,3 C 71 % 1008,8 hPa 0,0 l/m 0 min 0 min 0 W/m 9,0 km/h (2 Bft) 100,00 %
11.06.2018 23:28 19,6 C 18,9 C 18,3 C 71 % 1008,8 hPa 0,0 l/m 0 min 0 min 0 W/m 9,0 km/h (2 Bft) 100,00 %
11.06.2018 23:30 19,6 C 18,9 C 18,3 C 70 % 1008,8 hPa 0,0 l/m 0 min 0 min 0 W/m 13,5 km/h (3 Bft) 97,87 %
11.06.2018 23:32 19,5 C 18,9 C 18,3 C 70 % 1008,8 hPa 0,0 l/m 0 min 0 min 0 W/m 11,3 km/h (2 Bft) 97,83 %
11.06.2018 23:34 19,5 C 18,9 C 18,3 C 70 % 1008,9 hPa 0,0 l/m 0 min 0 min 0 W/m 4,5 km/h (1 Bft) 100,00 %
11.06.2018 23:36 19,5 C 18,9 C 18,3 C 70 % 1008,8 hPa 0,0 l/m 0 min 0 min 0 W/m 11,3 km/h (2 Bft) 100,00 %
11.06.2018 23:38 19,4 C 18,9 C 18,3 C 70 % 1008,9 hPa 0,0 l/m 0 min 0 min 0 W/m 6,8 km/h (2 Bft) 100,00 %
11.06.2018 23:40 19,4 C 18,9 C 18,3 C 70 % 1008,9 hPa 0,0 l/m 0 min 0 min 0 W/m 15,8 km/h (3 Bft) 100,00 %
11.06.2018 23:42 19,4 C 18,9 C 18,3 C 71 % 1008,9 hPa 0,0 l/m 0 min 0 min 0 W/m 11,3 km/h (2 Bft) 100,00 %
11.06.2018 23:44 19,4 C 18,9 C 18,3 C 71 % 1008,9 hPa 0,0 l/m 0 min 0 min 0 W/m 11,3 km/h (2 Bft) 100,00 %
11.06.2018 23:46 19,4 C 18,3 C 18,3 C 71 % 1008,9 hPa 0,0 l/m 0 min 0 min 0 W/m 9,0 km/h (2 Bft) 100,00 %
11.06.2018 23:48 19,4 C 18,3 C 18,3 C 71 % 1009,0 hPa 0,0 l/m 0 min 0 min 0 W/m 6,8 km/h (2 Bft) 100,00 %
11.06.2018 23:50 19,3 C 18,3 C 18,3 C 71 % 1009,0 hPa 0,0 l/m 0 min 0 min 0 W/m 11,3 km/h (2 Bft) 100,00 %
11.06.2018 23:52 19,3 C 18,3 C 17,8 C 72 % 1009,0 hPa 0,0 l/m 0 min 0 min 0 W/m 6,8 km/h (2 Bft) 100,00 %
11.06.2018 23:54 19,3 C 18,3 C 17,8 C 72 % 1008,9 hPa 0,0 l/m 0 min 0 min 0 W/m 9,0 km/h (2 Bft) 100,00 %
11.06.2018 23:56 19,3 C 18,3 C 17,8 C 72 % 1008,9 hPa 0,0 l/m 0 min 0 min 0 W/m 2,3 km/h (1 Bft) 100,00 %
11.06.2018 23:58 19,3 C 18,3 C 17,8 C 72 % 1009,0 hPa 0,0 l/m 0 min 0 min 0 W/m 9,0 km/h (2 Bft) 95,74 %
_ Min-Zeit 06:22 05:12 05:32 16:32 18:12 - - - - 01:22 16:12
Minimum _ 15,1 C 14,4 C 14,4 C 56 % 1008,0 hPa - - - - 0,0 km/h (0 Bft) 87,23 %
_ Max-Zeit 16:26 12:08 14:54 05:58 02:12 00:00 12:08 19:24 12:46 14:22 00:20
Maximum _ 24,4 C 31,1 C 22,8 C 92 % 1011,4 hPa 0,0 l/m 4 min 2 min 977 W/m 22,5 km/h
W-SW (4 Bft)
100,00 %
Durchschnitt _ 19,9 C 20,4 C 18,6 C 75 % 1009,9 hPa #0,0 l/m #3:26 h #4 min. 237 W/m 8,0 km/h (2 Bft) 97,62 %
© 2018 W. Hausmann